Wetterdaten: Samstag, 23.08.2014
Datum Zeit Temp. Aussen +5cm Feuchte Auss Luftdruck Regen Sonnenschein Regendauer UV Solar Windben
23.08.2014 00:00 11,8 C 10,6 C 94 % 1012,2 hPa 0,0 l/m 0 min 0 min 0,0 UV-I 0 W/m 17,7 km/h (3 Bft)
23.08.2014 00:02 11,8 C 10,6 C 94 % 1012,3 hPa 0,0 l/m 0 min 0 min 0,0 UV-I 0 W/m 17,7 km/h (3 Bft)
23.08.2014 00:05 11,7 C 10,6 C 94 % 1012,2 hPa 0,0 l/m 0 min 0 min 0,0 UV-I 0 W/m 21,3 km/h (4 Bft)
23.08.2014 00:06 11,7 C 10,6 C 94 % 1012,2 hPa 0,0 l/m 0 min 0 min 0,0 UV-I 0 W/m 14,2 km/h (3 Bft)
23.08.2014 00:08 11,7 C 10,6 C 94 % 1012,1 hPa 0,0 l/m 0 min 0 min 0,0 UV-I 0 W/m 21,3 km/h (4 Bft)
23.08.2014 00:10 11,7 C 10,6 C 94 % 1012,1 hPa 0,0 l/m 0 min 0 min 0,0 UV-I 0 W/m 21,3 km/h (4 Bft)
23.08.2014 00:12 11,7 C 10,6 C 94 % 1012,1 hPa 0,0 l/m 0 min 0 min 0,0 UV-I 0 W/m 21,3 km/h (4 Bft)
23.08.2014 00:14 11,7 C 10,6 C 94 % 1012,2 hPa 0,0 l/m 0 min 0 min 0,0 UV-I 0 W/m 17,7 km/h (3 Bft)
23.08.2014 00:16 11,7 C 10,6 C 94 % 1012,2 hPa 0,0 l/m 0 min 0 min 0,0 UV-I 0 W/m 10,7 km/h (2 Bft)
23.08.2014 00:18 11,7 C 10,6 C 94 % 1012,2 hPa 0,0 l/m 0 min 0 min 0,0 UV-I 0 W/m 14,2 km/h (3 Bft)
23.08.2014 00:20 11,7 C 10,6 C 94 % 1012,1 hPa 0,0 l/m 0 min 0 min 0,0 UV-I 0 W/m 17,7 km/h (3 Bft)
23.08.2014 00:22 11,7 C 10,6 C 94 % 1012,1 hPa 0,0 l/m 0 min 0 min 0,0 UV-I 0 W/m 14,2 km/h (3 Bft)
23.08.2014 00:24 11,8 C 10,6 C 94 % 1012,2 hPa 0,0 l/m 0 min 0 min 0,0 UV-I 0 W/m 24,7 km/h (4 Bft)
23.08.2014 00:26 11,8 C 10,6 C 94 % 1012,2 hPa 0,0 l/m 0 min 0 min 0,0 UV-I 0 W/m 17,7 km/h (3 Bft)
23.08.2014 00:28 11,8 C 10,6 C 94 % 1012,2 hPa 0,0 l/m 0 min 0 min 0,0 UV-I 0 W/m 21,3 km/h (4 Bft)
23.08.2014 00:30 11,8 C 10,6 C 94 % 1012,2 hPa 0,0 l/m 0 min 0 min 0,0 UV-I 0 W/m 24,7 km/h (4 Bft)
23.08.2014 00:32 11,8 C 10,6 C 94 % 1012,2 hPa 0,0 l/m 0 min 0 min 0,0 UV-I 0 W/m 17,7 km/h (3 Bft)
23.08.2014 00:34 11,8 C 10,6 C 93 % 1012,2 hPa 0,0 l/m 0 min 0 min 0,0 UV-I 0 W/m 24,7 km/h (4 Bft)
23.08.2014 00:36 11,8 C 10,6 C 93 % 1012,3 hPa 0,0 l/m 0 min 0 min 0,0 UV-I 0 W/m 21,3 km/h (4 Bft)
23.08.2014 00:38 11,9 C 10,6 C 93 % 1012,3 hPa 0,0 l/m 0 min 0 min 0,0 UV-I 0 W/m 21,3 km/h (4 Bft)
23.08.2014 00:40 11,9 C 10,6 C 93 % 1012,2 hPa 0,0 l/m 0 min 0 min 0,0 UV-I 0 W/m 24,7 km/h (4 Bft)
23.08.2014 00:42 11,9 C 10,6 C 93 % 1012,2 hPa 0,0 l/m 0 min 0 min 0,0 UV-I 0 W/m 14,2 km/h (3 Bft)
23.08.2014 00:44 11,9 C 10,6 C 93 % 1012,2 hPa 0,0 l/m 0 min 0 min 0,0 UV-I 0 W/m 21,3 km/h (4 Bft)
23.08.2014 00:46 11,9 C 10,6 C 93 % 1012,2 hPa 0,0 l/m 0 min 0 min 0,0 UV-I 0 W/m 21,3 km/h (4 Bft)
23.08.2014 00:48 11,9 C 10,6 C 93 % 1012,3 hPa 0,0 l/m 0 min 0 min 0,0 UV-I 0 W/m 21,3 km/h (4 Bft)
23.08.2014 00:50 11,9 C 10,6 C 93 % 1012,2 hPa 0,0 l/m 0 min 0 min 0,0 UV-I 0 W/m 21,3 km/h (4 Bft)
23.08.2014 00:52 11,9 C 10,6 C 93 % 1012,3 hPa 0,0 l/m 0 min 0 min 0,0 UV-I 0 W/m 24,7 km/h (4 Bft)
23.08.2014 00:54 11,9 C 10,6 C 93 % 1012,2 hPa 0,0 l/m 0 min 0 min 0,0 UV-I 0 W/m 17,7 km/h (3 Bft)
23.08.2014 00:56 11,9 C 10,6 C 93 % 1012,3 hPa 0,0 l/m 0 min 0 min 0,0 UV-I 0 W/m 17,7 km/h (3 Bft)
23.08.2014 00:58 11,9 C 10,6 C 93 % 1012,3 hPa 0,0 l/m 0 min 0 min 0,0 UV-I 0 W/m 14,2 km/h (3 Bft)
23.08.2014 01:00 11,9 C 10,6 C 93 % 1012,2 hPa 0,0 l/m 0 min 0 min 0,0 UV-I 0 W/m 17,7 km/h (3 Bft)
23.08.2014 01:02 11,9 C 10,6 C 93 % 1012,2 hPa 0,0 l/m 0 min 0 min 0,0 UV-I 0 W/m 14,2 km/h (3 Bft)
23.08.2014 01:04 11,9 C 10,6 C 93 % 1012,2 hPa 0,0 l/m 0 min 0 min 0,0 UV-I 0 W/m 14,2 km/h (3 Bft)
23.08.2014 01:06 11,9 C 10,6 C 93 % 1012,2 hPa 0,0 l/m 0 min 0 min 0,0 UV-I 0 W/m 14,2 km/h (3 Bft)
23.08.2014 01:08 11,9 C 10,6 C 93 % 1012,2 hPa 0,0 l/m 0 min 0 min 0,0 UV-I 0 W/m 7,1 km/h (2 Bft)
23.08.2014 01:10 11,9 C 10,6 C 93 % 1012,2 hPa 0,0 l/m 0 min 0 min 0,0 UV-I 0 W/m 10,7 km/h (2 Bft)
23.08.2014 01:12 11,9 C 10,6 C 93 % 1012,2 hPa 0,0 l/m 0 min 0 min 0,0 UV-I 0 W/m 10,7 km/h (2 Bft)
23.08.2014 01:14 11,9 C 10,6 C 93 % 1012,2 hPa 0,0 l/m 0 min 0 min 0,0 UV-I 0 W/m 0,0 km/h (0 Bft)
23.08.2014 01:16 11,9 C 10,6 C 93 % 1012,2 hPa 0,0 l/m 0 min 0 min 0,0 UV-I 0 W/m 0,0 km/h (0 Bft)
23.08.2014 01:18 11,9 C 10,6 C 93 % 1012,2 hPa 0,0 l/m 0 min 0 min 0,0 UV-I 0 W/m 3,5 km/h (1 Bft)
23.08.2014 01:20 11,9 C 10,6 C 94 % 1012,2 hPa 0,0 l/m 0 min 0 min 0,0 UV-I 0 W/m 0,0 km/h (0 Bft)
23.08.2014 01:22 11,9 C 10,6 C 94 % 1012,2 hPa 0,0 l/m 0 min 0 min 0,0 UV-I 0 W/m 0,0 km/h (0 Bft)
23.08.2014 01:24 11,9 C 10,6 C 94 % 1012,1 hPa 0,0 l/m 0 min 0 min 0,0 UV-I 0 W/m 10,7 km/h (2 Bft)
23.08.2014 01:26 11,8 C 10,6 C 94 % 1012,1 hPa 0,0 l/m 0 min 0 min 0,0 UV-I 0 W/m 10,7 km/h (2 Bft)
23.08.2014 01:28 11,8 C 10,6 C 94 % 1012,0 hPa 0,0 l/m 0 min 0 min 0,0 UV-I 0 W/m 14,2 km/h (3 Bft)
23.08.2014 01:30 11,8 C 10,6 C 94 % 1012,1 hPa 0,0 l/m 0 min 0 min 0,0 UV-I 0 W/m 10,7 km/h (2 Bft)
23.08.2014 01:32 11,8 C 10,6 C 94 % 1012,1 hPa 0,0 l/m 0 min 0 min 0,0 UV-I 0 W/m 3,5 km/h (1 Bft)
23.08.2014 01:34 11,8 C 10,6 C 94 % 1012,0 hPa 0,0 l/m 0 min 0 min 0,0 UV-I 0 W/m 7,1 km/h (2 Bft)
23.08.2014 01:36 11,9 C 10,6 C 94 % 1012,0 hPa 0,0 l/m 0 min 0 min 0,0 UV-I 0 W/m 0,0 km/h (0 Bft)
23.08.2014 01:38 11,9 C 10,6 C 94 % 1012,0 hPa 0,0 l/m 0 min 0 min 0,0 UV-I 0 W/m 0,0 km/h (0 Bft)
23.08.2014 01:40 11,9 C 10,6 C 94 % 1012,0 hPa 0,0 l/m 0 min 0 min 0,0 UV-I 0 W/m 0,0 km/h (0 Bft)
23.08.2014 01:42 11,8 C 10,6 C 94 % 1011,9 hPa 0,0 l/m 0 min 0 min 0,0 UV-I 0 W/m 0,0 km/h (0 Bft)
23.08.2014 01:44 11,8 C 10,6 C 94 % 1012,0 hPa 0,0 l/m 0 min 0 min 0,0 UV-I 0 W/m 0,0 km/h (0 Bft)
23.08.2014 01:46 11,8 C 10,6 C 95 % 1012,0 hPa 0,0 l/m 0 min 0 min 0,0 UV-I 0 W/m 0,0 km/h (0 Bft)
23.08.2014 01:48 11,8 C 10,6 C 95 % 1012,0 hPa 0,0 l/m 0 min 0 min 0,0 UV-I 0 W/m 3,5 km/h (1 Bft)
23.08.2014 01:50 11,7 C 10,0 C 94 % 1012,0 hPa 0,0 l/m 0 min 0 min 0,0 UV-I 0 W/m 0,0 km/h (0 Bft)
23.08.2014 01:52 11,7 C 10,0 C 94 % 1012,1 hPa 0,0 l/m 0 min 0 min 0,0 UV-I 0 W/m 10,7 km/h (2 Bft)
23.08.2014 01:54 11,6 C 10,0 C 95 % 1012,1 hPa 0,0 l/m 0 min 0 min 0,0 UV-I 0 W/m 7,1 km/h (2 Bft)
23.08.2014 01:56 11,6 C 10,0 C 95 % 1012,1 hPa 0,0 l/m 0 min 0 min 0,0 UV-I 0 W/m 0,0 km/h (0 Bft)
23.08.2014 01:58 11,6 C 10,0 C 95 % 1012,1 hPa 0,0 l/m 0 min 0 min 0,0 UV-I 0 W/m 0,0 km/h (0 Bft)
23.08.2014 02:00 11,5 C 10,0 C 95 % 1012,1 hPa 0,0 l/m 0 min 0 min 0,0 UV-I 0 W/m 0,0 km/h (0 Bft)
23.08.2014 02:02 11,5 C 10,0 C 95 % 1012,0 hPa 0,0 l/m 0 min 0 min 0,0 UV-I 0 W/m 0,0 km/h (0 Bft)
23.08.2014 02:04 11,4 C 10,0 C 95 % 1012,1 hPa 0,0 l/m 0 min 0 min 0,0 UV-I 0 W/m 14,2 km/h (3 Bft)
23.08.2014 02:06 11,4 C 10,0 C 95 % 1012,1 hPa 0,0 l/m 0 min 0 min 0,0 UV-I 0 W/m 10,7 km/h (2 Bft)
23.08.2014 02:08 11,4 C 10,0 C 95 % 1012,1 hPa 0,0 l/m 0 min 0 min 0,0 UV-I 0 W/m 10,7 km/h (2 Bft)
23.08.2014 02:10 11,4 C 10,0 C 95 % 1012,1 hPa 0,0 l/m 0 min 0 min 0,0 UV-I 0 W/m 14,2 km/h (3 Bft)
23.08.2014 02:12 11,4 C 10,0 C 95 % 1012,1 hPa 0,0 l/m 0 min 0 min 0,0 UV-I 0 W/m 14,2 km/h (3 Bft)
23.08.2014 02:14 11,4 C 10,0 C 95 % 1012,1 hPa 0,0 l/m 0 min 0 min 0,0 UV-I 0 W/m 0,0 km/h (0 Bft)
23.08.2014 02:16 11,4 C 10,0 C 95 % 1012,2 hPa 0,0 l/m 0 min 0 min 0,0 UV-I 0 W/m 10,7 km/h (2 Bft)
23.08.2014 02:18 11,4 C 10,0 C 96 % 1012,2 hPa 0,0 l/m 0 min 0 min 0,0 UV-I 0 W/m 17,7 km/h (3 Bft)
23.08.2014 02:20 11,4 C 10,0 C 96 % 1012,1 hPa 0,0 l/m 0 min 0 min 0,0 UV-I 0 W/m 17,7 km/h (3 Bft)
23.08.2014 02:22 11,4 C 10,0 C 96 % 1012,1 hPa 0,0 l/m 0 min 0 min 0,0 UV-I 0 W/m 17,7 km/h (3 Bft)
23.08.2014 02:24 11,4 C 10,0 C 96 % 1012,1 hPa 0,0 l/m 0 min 0 min 0,0 UV-I 0 W/m 28,2 km/h (4 Bft)
23.08.2014 02:26 11,4 C 10,0 C 96 % 1012,0 hPa 0,0 l/m 0 min 0 min 0,0 UV-I 0 W/m 17,7 km/h (3 Bft)
23.08.2014 02:28 11,4 C 10,6 C 96 % 1012,0 hPa 0,0 l/m 0 min 0 min 0,0 UV-I 0 W/m 21,3 km/h (4 Bft)
23.08.2014 02:30 11,5 C 10,6 C 96 % 1012,1 hPa 0,0 l/m 0 min 0 min 0,0 UV-I 0 W/m 17,7 km/h (3 Bft)
23.08.2014 02:32 11,4 C 10,6 C 96 % 1012,1 hPa 0,0 l/m 0 min 0 min 0,0 UV-I 0 W/m 21,3 km/h (4 Bft)
23.08.2014 02:34 11,5 C 10,6 C 96 % 1012,1 hPa 0,0 l/m 0 min 0 min 0,0 UV-I 0 W/m 21,3 km/h (4 Bft)
23.08.2014 02:36 11,4 C 10,6 C 96 % 1012,1 hPa 0,0 l/m 0 min 0 min 0,0 UV-I 0 W/m 14,2 km/h (3 Bft)
23.08.2014 02:38 11,4 C 10,0 C 96 % 1012,1 hPa 0,0 l/m 0 min 0 min 0,0 UV-I 0 W/m 14,2 km/h (3 Bft)
23.08.2014 02:40 11,4 C 10,6 C 96 % 1012,0 hPa 0,0 l/m 0 min 0 min 0,0 UV-I 0 W/m 10,7 km/h (2 Bft)
23.08.2014 02:42 11,4 C 10,0 C 96 % 1012,0 hPa 0,0 l/m 0 min 0 min 0,0 UV-I 0 W/m 14,2 km/h (3 Bft)
23.08.2014 02:44 11,4 C 10,0 C 96 % 1012,0 hPa 0,0 l/m 0 min 0 min 0,0 UV-I 0 W/m 21,3 km/h (4 Bft)
23.08.2014 02:46 11,4 C 10,0 C 96 % 1012,0 hPa 0,0 l/m 0 min 0 min 0,0 UV-I 0 W/m 10,7 km/h (2 Bft)
23.08.2014 02:48 11,4 C 10,0 C 96 % 1012,0 hPa 0,0 l/m 0 min 0 min 0,0 UV-I 0 W/m 17,7 km/h (3 Bft)
23.08.2014 02:50 11,4 C 10,0 C 96 % 1012,0 hPa 0,0 l/m 0 min 0 min 0,0 UV-I 0 W/m 17,7 km/h (3 Bft)
23.08.2014 02:52 11,4 C 10,0 C 96 % 1012,0 hPa 0,0 l/m 0 min 0 min 0,0 UV-I 0 W/m 17,7 km/h (3 Bft)
23.08.2014 02:54 11,4 C 10,6 C 97 % 1011,9 hPa 0,0 l/m 0 min 0 min 0,0 UV-I 0 W/m 17,7 km/h (3 Bft)
23.08.2014 02:56 11,4 C 10,6 C 97 % 1012,0 hPa 0,0 l/m 0 min 0 min 0,0 UV-I 0 W/m 21,3 km/h (4 Bft)
23.08.2014 02:58 11,4 C 10,6 C 97 % 1012,1 hPa 0,0 l/m 0 min 0 min 0,0 UV-I 0 W/m 17,7 km/h (3 Bft)
23.08.2014 03:00 11,4 C 10,6 C 97 % 1012,1 hPa 0,0 l/m 0 min 0 min 0,0 UV-I 0 W/m 14,2 km/h (3 Bft)
23.08.2014 03:02 11,4 C 10,6 C 97 % 1012,1 hPa 0,0 l/m 0 min 0 min 0,0 UV-I 0 W/m 14,2 km/h (3 Bft)
23.08.2014 03:04 11,4 C 10,0 C 97 % 1012,1 hPa 0,0 l/m 0 min 0 min 0,0 UV-I 0 W/m 3,5 km/h (1 Bft)
23.08.2014 03:06 11,4 C 10,0 C 97 % 1011,9 hPa 0,0 l/m 0 min 0 min 0,0 UV-I 0 W/m 17,7 km/h (3 Bft)
23.08.2014 03:08 11,4 C 10,6 C 97 % 1011,9 hPa 0,0 l/m 0 min 0 min 0,0 UV-I 0 W/m 17,7 km/h (3 Bft)
23.08.2014 03:10 11,4 C 10,6 C 97 % 1011,9 hPa 0,0 l/m 0 min 0 min 0,0 UV-I 0 W/m 17,7 km/h (3 Bft)
23.08.2014 03:12 11,4 C 10,6 C 97 % 1011,9 hPa 0,0 l/m 0 min 0 min 0,0 UV-I 0 W/m 17,7 km/h (3 Bft)
23.08.2014 03:14 11,4 C 10,6 C 97 % 1011,9 hPa 0,0 l/m 0 min 0 min 0,0 UV-I 0 W/m 17,7 km/h (3 Bft)
23.08.2014 03:16 11,5 C 10,6 C 97 % 1011,9 hPa 0,0 l/m 0 min 0 min 0,0 UV-I 0 W/m 21,3 km/h (4 Bft)
23.08.2014 03:18 11,5 C 10,6 C 97 % 1011,9 hPa 0,0 l/m 0 min 0 min 0,0 UV-I 0 W/m 24,7 km/h (4 Bft)
23.08.2014 03:20 11,5 C 10,6 C 97 % 1012,0 hPa 0,0 l/m 0 min 0 min 0,0 UV-I 0 W/m 17,7 km/h (3 Bft)
23.08.2014 03:22 11,4 C 10,6 C 97 % 1011,9 hPa 0,0 l/m 0 min 0 min 0,0 UV-I 0 W/m 14,2 km/h (3 Bft)
23.08.2014 03:24 11,4 C 10,6 C 97 % 1011,9 hPa 0,0 l/m 0 min 0 min 0,0 UV-I 0 W/m 17,7 km/h (3 Bft)
23.08.2014 03:26 11,4 C 10,6 C 97 % 1011,9 hPa 0,0 l/m 0 min 0 min 0,0 UV-I 0 W/m 14,2 km/h (3 Bft)
23.08.2014 03:28 11,4 C 10,6 C 97 % 1011,9 hPa 0,0 l/m 0 min 0 min 0,0 UV-I 0 W/m 10,7 km/h (2 Bft)
23.08.2014 03:30 11,4 C 10,6 C 97 % 1012,0 hPa 0,0 l/m 0 min 0 min 0,0 UV-I 0 W/m 17,7 km/h (3 Bft)
23.08.2014 03:32 11,4 C 10,6 C 97 % 1012,0 hPa 0,0 l/m 0 min 0 min 0,0 UV-I 0 W/m 14,2 km/h (3 Bft)
23.08.2014 03:34 11,4 C 10,6 C 97 % 1012,0 hPa 0,0 l/m 0 min 0 min 0,0 UV-I 0 W/m 10,7 km/h (2 Bft)
23.08.2014 03:36 11,4 C 10,6 C 97 % 1012,0 hPa 0,0 l/m 0 min 0 min 0,0 UV-I 0 W/m 17,7 km/h (3 Bft)
23.08.2014 03:38 11,4 C 10,6 C 97 % 1012,0 hPa 0,0 l/m 0 min 0 min 0,0 UV-I 0 W/m 10,7 km/h (2 Bft)
23.08.2014 03:40 11,5 C 10,6 C 97 % 1012,0 hPa 0,0 l/m 0 min 0 min 0,0 UV-I 0 W/m 17,7 km/h (3 Bft)
23.08.2014 03:42 11,5 C 10,6 C 97 % 1012,0 hPa 0,0 l/m 0 min 0 min 0,0 UV-I 0 W/m 14,2 km/h (3 Bft)
23.08.2014 03:44 11,5 C 10,6 C 97 % 1012,0 hPa 0,0 l/m 0 min 0 min 0,0 UV-I 0 W/m 14,2 km/h (3 Bft)
23.08.2014 03:46 11,6 C 10,6 C 97 % 1012,0 hPa 0,0 l/m 0 min 0 min 0,0 UV-I 0 W/m 14,2 km/h (3 Bft)
23.08.2014 03:48 11,6 C 10,6 C 97 % 1012,0 hPa 0,0 l/m 0 min 0 min 0,0 UV-I 0 W/m 14,2 km/h (3 Bft)
23.08.2014 03:50 11,6 C 10,6 C 97 % 1012,0 hPa 0,0 l/m 0 min 0 min 0,0 UV-I 0 W/m 14,2 km/h (3 Bft)
23.08.2014 03:52 11,6 C 10,6 C 97 % 1012,0 hPa 0,0 l/m 0 min 0 min 0,0 UV-I 0 W/m 14,2 km/h (3 Bft)
23.08.2014 03:54 11,6 C 10,6 C 97 % 1012,1 hPa 0,0 l/m 0 min 0 min 0,0 UV-I 0 W/m 14,2 km/h (3 Bft)
23.08.2014 03:56 11,6 C 10,6 C 97 % 1012,0 hPa 0,0 l/m 0 min 0 min 0,0 UV-I 0 W/m 14,2 km/h (3 Bft)
23.08.2014 03:58 11,6 C 10,6 C 97 % 1011,9 hPa 0,0 l/m 0 min 0 min 0,0 UV-I 0 W/m 21,3 km/h (4 Bft)
23.08.2014 04:00 11,7 C 10,6 C 97 % 1011,9 hPa 0,0 l/m 0 min 0 min 0,0 UV-I 0 W/m 10,7 km/h (2 Bft)
23.08.2014 04:02 11,7 C 10,6 C 97 % 1011,9 hPa 0,0 l/m 0 min 0 min 0,0 UV-I 0 W/m 14,2 km/h (3 Bft)
23.08.2014 04:04 11,7 C 10,6 C 97 % 1011,9 hPa 0,0 l/m 0 min 0 min 0,0 UV-I 0 W/m 10,7 km/h (2 Bft)
23.08.2014 04:06 11,7 C 10,6 C 97 % 1011,9 hPa 0,0 l/m 0 min 0 min 0,0 UV-I 0 W/m 10,7 km/h (2 Bft)
23.08.2014 04:08 11,7 C 10,6 C 97 % 1011,9 hPa 0,0 l/m 0 min 0 min 0,0 UV-I 0 W/m 10,7 km/h (2 Bft)
23.08.2014 04:10 11,7 C 10,6 C 97 % 1011,9 hPa 0,0 l/m 0 min 0 min 0,0 UV-I 0 W/m 10,7 km/h (2 Bft)
23.08.2014 04:12 11,7 C 10,6 C 97 % 1011,9 hPa 0,0 l/m 0 min 0 min 0,0 UV-I 0 W/m 21,3 km/h (4 Bft)
23.08.2014 04:14 11,7 C 10,6 C 97 % 1011,8 hPa 0,0 l/m 0 min 0 min 0,0 UV-I 0 W/m 21,3 km/h (4 Bft)
23.08.2014 04:16 11,7 C 10,6 C 97 % 1011,8 hPa 0,0 l/m 0 min 0 min 0,0 UV-I 0 W/m 21,3 km/h (4 Bft)
23.08.2014 04:18 11,7 C 10,6 C 97 % 1011,9 hPa 0,0 l/m 0 min 0 min 0,0 UV-I 0 W/m 10,7 km/h (2 Bft)
23.08.2014 04:20 11,7 C 10,6 C 97 % 1011,9 hPa 0,0 l/m 0 min 0 min 0,0 UV-I 0 W/m 14,2 km/h (3 Bft)
23.08.2014 04:22 11,7 C 10,6 C 97 % 1012,0 hPa 0,0 l/m 0 min 0 min 0,0 UV-I 0 W/m 21,3 km/h (4 Bft)
23.08.2014 04:24 11,7 C 10,6 C 97 % 1011,9 hPa 0,0 l/m 0 min 0 min 0,0 UV-I 0 W/m 14,2 km/h (3 Bft)
23.08.2014 04:26 11,7 C 10,6 C 97 % 1011,9 hPa 0,0 l/m 0 min 0 min 0,0 UV-I 0 W/m 10,7 km/h (2 Bft)
23.08.2014 04:28 11,7 C 10,6 C 97 % 1011,9 hPa 0,0 l/m 0 min 0 min 0,0 UV-I 0 W/m 21,3 km/h (4 Bft)
23.08.2014 04:30 11,7 C 10,6 C 97 % 1011,9 hPa 0,0 l/m 0 min 0 min 0,0 UV-I 0 W/m 14,2 km/h (3 Bft)
23.08.2014 04:32 11,8 C 10,6 C 97 % 1011,9 hPa 0,0 l/m 0 min 0 min 0,0 UV-I 0 W/m 10,7 km/h (2 Bft)
23.08.2014 04:34 11,8 C 10,6 C 97 % 1011,9 hPa 0,0 l/m 0 min 0 min 0,0 UV-I 0 W/m 17,7 km/h (3 Bft)
23.08.2014 04:36 11,8 C 10,6 C 97 % 1011,9 hPa 0,0 l/m 0 min 0 min 0,0 UV-I 0 W/m 21,3 km/h (4 Bft)
23.08.2014 04:38 11,8 C 10,6 C 97 % 1011,9 hPa 0,0 l/m 0 min 0 min 0,0 UV-I 0 W/m 10,7 km/h (2 Bft)
23.08.2014 04:40 11,8 C 10,6 C 97 % 1011,9 hPa 0,0 l/m 0 min 0 min 0,0 UV-I 0 W/m 10,7 km/h (2 Bft)
23.08.2014 04:42 11,7 C 10,6 C 97 % 1011,9 hPa 0,0 l/m 0 min 0 min 0,0 UV-I 0 W/m 14,2 km/h (3 Bft)
23.08.2014 04:44 11,8 C 10,6 C 97 % 1011,9 hPa 0,0 l/m 0 min 0 min 0,0 UV-I 0 W/m 14,2 km/h (3 Bft)
23.08.2014 04:46 11,8 C 10,6 C 97 % 1011,8 hPa 0,0 l/m 0 min 0 min 0,0 UV-I 0 W/m 14,2 km/h (3 Bft)
23.08.2014 04:48 11,8 C 10,6 C 97 % 1011,8 hPa 0,0 l/m 0 min 0 min 0,0 UV-I 0 W/m 24,7 km/h (4 Bft)
23.08.2014 04:50 11,7 C 10,6 C 97 % 1011,8 hPa 0,0 l/m 0 min 0 min 0,0 UV-I 0 W/m 17,7 km/h (3 Bft)
23.08.2014 04:52 11,7 C 10,6 C 97 % 1011,8 hPa 0,0 l/m 0 min 0 min 0,0 UV-I 0 W/m 21,3 km/h (4 Bft)
23.08.2014 04:54 11,7 C 10,6 C 97 % 1011,8 hPa 0,0 l/m 0 min 0 min 0,0 UV-I 0 W/m 17,7 km/h (3 Bft)
23.08.2014 04:56 11,7 C 10,6 C 97 % 1011,8 hPa 0,0 l/m 0 min 0 min 0,0 UV-I 0 W/m 24,7 km/h (4 Bft)
23.08.2014 04:58 11,7 C 10,6 C 97 % 1011,7 hPa 0,0 l/m 0 min 0 min 0,0 UV-I 0 W/m 21,3 km/h (4 Bft)
23.08.2014 05:00 11,7 C 10,6 C 97 % 1011,8 hPa 0,0 l/m 0 min 0 min 0,0 UV-I 0 W/m 17,7 km/h (3 Bft)
23.08.2014 05:02 11,7 C 10,6 C 97 % 1011,7 hPa 0,0 l/m 0 min 0 min 0,0 UV-I 0 W/m 14,2 km/h (3 Bft)
23.08.2014 05:04 11,7 C 10,6 C 97 % 1011,8 hPa 0,0 l/m 0 min 0 min 0,0 UV-I 0 W/m 10,7 km/h (2 Bft)
23.08.2014 05:06 11,7 C 10,6 C 97 % 1011,8 hPa 0,0 l/m 0 min 0 min 0,0 UV-I 0 W/m 14,2 km/h (3 Bft)
23.08.2014 05:08 11,7 C 10,6 C 97 % 1011,7 hPa 0,0 l/m 0 min 0 min 0,0 UV-I 0 W/m 10,7 km/h (2 Bft)
23.08.2014 05:10 11,7 C 10,6 C 97 % 1011,8 hPa 0,0 l/m 0 min 0 min 0,0 UV-I 0 W/m 10,7 km/h (2 Bft)
23.08.2014 05:12 11,7 C 10,6 C 97 % 1011,7 hPa 0,0 l/m 0 min 0 min 0,0 UV-I 0 W/m 10,7 km/h (2 Bft)
23.08.2014 05:14 11,7 C 10,6 C 97 % 1011,8 hPa 0,0 l/m 0 min 0 min 0,0 UV-I 0 W/m 14,2 km/h (3 Bft)
23.08.2014 05:16 11,7 C 10,6 C 97 % 1011,7 hPa 0,0 l/m 0 min 0 min 0,0 UV-I 0 W/m 21,3 km/h (4 Bft)
23.08.2014 05:18 11,7 C 10,6 C 97 % 1011,6 hPa 0,0 l/m 0 min 0 min 0,0 UV-I 0 W/m 14,2 km/h (3 Bft)
23.08.2014 05:20 11,7 C 10,6 C 97 % 1011,7 hPa 0,0 l/m 0 min 0 min 0,0 UV-I 0 W/m 3,5 km/h (1 Bft)
23.08.2014 05:22 11,7 C 10,6 C 97 % 1011,6 hPa 0,0 l/m 0 min 0 min 0,0 UV-I 0 W/m 0,0 km/h (0 Bft)
23.08.2014 05:24 11,6 C 10,6 C 97 % 1011,6 hPa 0,0 l/m 0 min 0 min 0,0 UV-I 0 W/m 17,7 km/h (3 Bft)
23.08.2014 05:26 11,7 C 10,6 C 97 % 1011,6 hPa 0,0 l/m 0 min 0 min 0,0 UV-I 0 W/m 21,3 km/h (4 Bft)
23.08.2014 05:28 11,6 C 10,6 C 97 % 1011,7 hPa 0,0 l/m 0 min 0 min 0,0 UV-I 0 W/m 3,5 km/h (1 Bft)
23.08.2014 05:30 11,6 C 10,6 C 97 % 1011,7 hPa 0,0 l/m 0 min 0 min 0,0 UV-I 0 W/m 0,0 km/h (0 Bft)
23.08.2014 05:32 11,6 C 10,6 C 97 % 1011,8 hPa 0,0 l/m 0 min 0 min 0,0 UV-I 0 W/m 0,0 km/h (0 Bft)
23.08.2014 05:34 11,6 C 10,6 C 97 % 1011,8 hPa 0,0 l/m 0 min 0 min 0,0 UV-I 0 W/m 17,7 km/h (3 Bft)
23.08.2014 05:36 11,5 C 10,6 C 97 % 1011,8 hPa 0,0 l/m 0 min 0 min 0,0 UV-I 0 W/m 17,7 km/h (3 Bft)
23.08.2014 05:38 11,5 C 10,0 C 97 % 1011,9 hPa 0,0 l/m 0 min 0 min 0,0 UV-I 0 W/m 10,7 km/h (2 Bft)
23.08.2014 05:40 11,4 C 10,0 C 97 % 1011,8 hPa 0,0 l/m 0 min 0 min 0,0 UV-I 0 W/m 0,0 km/h (0 Bft)
23.08.2014 05:42 11,4 C 10,0 C 97 % 1011,8 hPa 0,0 l/m 0 min 0 min 0,0 UV-I 0 W/m 0,0 km/h (0 Bft)
23.08.2014 05:44 11,4 C 10,0 C 97 % 1011,8 hPa 0,0 l/m 0 min 0 min 0,0 UV-I 0 W/m 0,0 km/h (0 Bft)
23.08.2014 05:46 11,3 C 10,0 C 97 % 1011,9 hPa 0,0 l/m 0 min 0 min 0,0 UV-I 0 W/m 7,1 km/h (2 Bft)
23.08.2014 05:48 11,3 C 10,0 C 97 % 1011,9 hPa 0,0 l/m 0 min 0 min 0,0 UV-I 0 W/m 0,0 km/h (0 Bft)
23.08.2014 05:50 11,3 C 10,0 C 97 % 1011,8 hPa 0,0 l/m 0 min 0 min 0,0 UV-I 0 W/m 0,0 km/h (0 Bft)
23.08.2014 05:52 11,3 C 10,0 C 97 % 1011,8 hPa 0,0 l/m 0 min 0 min 0,0 UV-I 0 W/m 14,2 km/h (3 Bft)
23.08.2014 05:54 11,3 C 10,0 C 97 % 1011,9 hPa 0,0 l/m 0 min 0 min 0,0 UV-I 0 W/m 7,1 km/h (2 Bft)
23.08.2014 05:56 11,2 C 10,0 C 97 % 1011,9 hPa 0,0 l/m 0 min 0 min 0,0 UV-I 0 W/m 0,0 km/h (0 Bft)
23.08.2014 05:58 11,2 C 10,0 C 97 % 1011,9 hPa 0,0 l/m 0 min 0 min 0,0 UV-I 0 W/m 0,0 km/h (0 Bft)
23.08.2014 06:00 11,2 C 10,0 C 97 % 1011,9 hPa 0,0 l/m 0 min 0 min 0,0 UV-I 0 W/m 0,0 km/h (0 Bft)
23.08.2014 06:02 11,1 C 10,0 C 97 % 1011,9 hPa 0,0 l/m 0 min 0 min 0,0 UV-I 0 W/m 0,0 km/h (0 Bft)
23.08.2014 06:06 11,1 C 10,0 C 97 % 1011,9 hPa 0,0 l/m 0 min 0 min 0,0 UV-I 0 W/m 10,7 km/h (2 Bft)
23.08.2014 06:08 11,1 C 10,0 C 97 % 1012,0 hPa 0,0 l/m 0 min 0 min 0,0 UV-I 0 W/m 10,7 km/h (2 Bft)
23.08.2014 06:10 11,1 C 10,0 C 97 % 1012,0 hPa 0,0 l/m 0 min 0 min 0,0 UV-I 0 W/m 0,0 km/h (0 Bft)
23.08.2014 06:12 11,1 C 10,0 C 97 % 1011,9 hPa 0,0 l/m 0 min 0 min 0,0 UV-I 0 W/m 0,0 km/h (0 Bft)
23.08.2014 06:14 11,0 C 10,0 C 97 % 1011,9 hPa 0,0 l/m 0 min 0 min 0,0 UV-I 0 W/m 0,0 km/h (0 Bft)
23.08.2014 06:16 10,9 C 9,4 C 98 % 1011,9 hPa 0,0 l/m 0 min 0 min 0,0 UV-I 0 W/m 3,5 km/h (1 Bft)
23.08.2014 06:18 10,9 C 9,4 C 98 % 1011,9 hPa 0,0 l/m 0 min 0 min 0,0 UV-I 0 W/m 3,5 km/h (1 Bft)
23.08.2014 06:20 10,9 C 9,4 C 98 % 1012,0 hPa 0,0 l/m 0 min 0 min 0,0 UV-I 0 W/m 10,7 km/h (2 Bft)
23.08.2014 06:22 10,9 C 9,4 C 98 % 1012,0 hPa 0,0 l/m 0 min 0 min 0,0 UV-I 0 W/m 0,0 km/h (0 Bft)
23.08.2014 06:24 10,9 C 9,4 C 98 % 1012,0 hPa 0,0 l/m 0 min 0 min 0,0 UV-I 0 W/m 0,0 km/h (0 Bft)
23.08.2014 06:26 10,9 C 10,0 C 98 % 1012,0 hPa 0,0 l/m 0 min 0 min 0,0 UV-I 0 W/m 14,2 km/h (3 Bft)
23.08.2014 06:28 10,9 C 10,0 C 98 % 1012,1 hPa 0,0 l/m 0 min 0 min 0,0 UV-I 0 W/m 10,7 km/h (2 Bft)
23.08.2014 06:30 10,9 C 10,0 C 98 % 1012,0 hPa 0,0 l/m 0 min 0 min 0,0 UV-I 0 W/m 7,1 km/h (2 Bft)
23.08.2014 06:32 10,9 C 9,4 C 98 % 1012,0 hPa 0,0 l/m 0 min 0 min 0,0 UV-I 0 W/m 0,0 km/h (0 Bft)
23.08.2014 06:34 10,9 C 9,4 C 98 % 1012,0 hPa 0,0 l/m 0 min 0 min 0,0 UV-I 0 W/m 7,1 km/h (2 Bft)
23.08.2014 06:36 10,9 C 9,4 C 98 % 1012,0 hPa 0,0 l/m 0 min 0 min 0,0 UV-I 0 W/m 0,0 km/h (0 Bft)
23.08.2014 06:38 10,8 C 9,4 C 98 % 1012,1 hPa 0,0 l/m 0 min 0 min 0,0 UV-I 0 W/m 0,0 km/h (0 Bft)
23.08.2014 06:40 10,8 C 9,4 C 98 % 1012,1 hPa 0,0 l/m 0 min 0 min 0,0 UV-I 9 W/m 3,5 km/h (1 Bft)
23.08.2014 06:42 10,9 C 10,0 C 98 % 1012,0 hPa 0,0 l/m 0 min 0 min 0,0 UV-I 11 W/m 14,2 km/h (3 Bft)
23.08.2014 06:44 10,9 C 10,0 C 98 % 1012,0 hPa 0,0 l/m 0 min 0 min 0,0 UV-I 11 W/m 14,2 km/h (3 Bft)
23.08.2014 06:46 10,9 C 10,0 C 98 % 1012,0 hPa 0,0 l/m 0 min 0 min 0,0 UV-I 11 W/m 10,7 km/h (2 Bft)
23.08.2014 06:48 10,9 C 10,0 C 98 % 1012,0 hPa 0,0 l/m 0 min 0 min 0,0 UV-I 11 W/m 0,0 km/h (0 Bft)
23.08.2014 06:50 10,9 C 10,0 C 98 % 1012,0 hPa 0,0 l/m 0 min 0 min 0,0 UV-I 12 W/m 0,0 km/h (0 Bft)
23.08.2014 06:52 10,9 C 10,0 C 98 % 1012,0 hPa 0,0 l/m 0 min 0 min 0,0 UV-I 14 W/m 0,0 km/h (0 Bft)
23.08.2014 06:54 10,9 C 10,0 C 98 % 1012,0 hPa 0,0 l/m 0 min 0 min 0,0 UV-I 16 W/m 0,0 km/h (0 Bft)
23.08.2014 06:56 10,9 C 10,0 C 98 % 1012,0 hPa 0,0 l/m 0 min 0 min 0,0 UV-I 17 W/m 3,5 km/h (1 Bft)
23.08.2014 06:58 10,9 C 10,0 C 98 % 1012,0 hPa 0,0 l/m 0 min 0 min 0,0 UV-I 18 W/m 0,0 km/h (0 Bft)
23.08.2014 07:00 10,9 C 10,0 C 98 % 1012,0 hPa 0,0 l/m 0 min 0 min 0,0 UV-I 22 W/m 0,0 km/h (0 Bft)
23.08.2014 07:02 10,9 C 10,0 C 98 % 1012,0 hPa 0,0 l/m 0 min 0 min 0,0 UV-I 26 W/m 0,0 km/h (0 Bft)
23.08.2014 07:04 10,9 C 10,0 C 98 % 1012,0 hPa 0,0 l/m 2 min 0 min 0,0 UV-I 34 W/m 0,0 km/h (0 Bft)
23.08.2014 07:06 11,0 C 10,0 C 98 % 1012,0 hPa 0,0 l/m 2 min 0 min 0,0 UV-I 41 W/m 0,0 km/h (0 Bft)
23.08.2014 07:08 11,1 C 10,0 C 98 % 1012,0 hPa 0,0 l/m 2 min 0 min 0,0 UV-I 48 W/m 0,0 km/h (0 Bft)
23.08.2014 07:10 11,1 C 10,0 C 98 % 1012,0 hPa 0,0 l/m 2 min 0 min 0,0 UV-I 53 W/m 0,0 km/h (0 Bft)
23.08.2014 07:12 11,1 C 10,0 C 98 % 1012,0 hPa 0,0 l/m 2 min 0 min 0,0 UV-I 61 W/m 10,7 km/h (2 Bft)
23.08.2014 07:14 11,2 C 10,0 C 98 % 1012,0 hPa 0,0 l/m 2 min 0 min 0,0 UV-I 70 W/m 0,0 km/h (0 Bft)
23.08.2014 07:16 11,2 C 10,0 C 98 % 1011,9 hPa 0,0 l/m 2 min 0 min 0,0 UV-I 76 W/m 0,0 km/h (0 Bft)
23.08.2014 07:18 11,2 C 10,0 C 98 % 1011,9 hPa 0,0 l/m 2 min 0 min 0,0 UV-I 83 W/m 0,0 km/h (0 Bft)
23.08.2014 07:20 11,3 C 10,6 C 98 % 1011,9 hPa 0,0 l/m 2 min 0 min 0,0 UV-I 90 W/m 0,0 km/h (0 Bft)
23.08.2014 07:22 11,3 C 10,6 C 98 % 1012,0 hPa 0,0 l/m 2 min 0 min 0,0 UV-I 95 W/m 3,5 km/h (1 Bft)
23.08.2014 07:24 11,4 C 10,6 C 98 % 1012,0 hPa 0,0 l/m 2 min 0 min 0,0 UV-I 97 W/m 0,0 km/h (0 Bft)
23.08.2014 07:26 11,4 C 10,6 C 98 % 1011,9 hPa 0,0 l/m 2 min 0 min 0,0 UV-I 82 W/m 0,0 km/h (0 Bft)
23.08.2014 07:28 11,5 C 10,6 C 98 % 1012,0 hPa 0,0 l/m 0 min 0 min 0,0 UV-I 56 W/m 0,0 km/h (0 Bft)
23.08.2014 07:30 11,5 C 10,6 C 98 % 1011,9 hPa 0,0 l/m 0 min 0 min 0,0 UV-I 55 W/m 0,0 km/h (0 Bft)
23.08.2014 07:32 11,6 C 10,6 C 98 % 1012,0 hPa 0,0 l/m 0 min 0 min 0,0 UV-I 56 W/m 0,0 km/h (0 Bft)
23.08.2014 07:34 11,6 C 10,6 C 98 % 1012,0 hPa 0,0 l/m 0 min 0 min 0,0 UV-I 54 W/m 3,5 km/h (1 Bft)
23.08.2014 07:36 11,6 C 10,6 C 98 % 1012,0 hPa 0,0 l/m 0 min 0 min 0,0 UV-I 54 W/m 0,0 km/h (0 Bft)
23.08.2014 07:38 11,6 C 10,6 C 98 % 1012,0 hPa 0,0 l/m 0 min 0 min 0,0 UV-I 54 W/m 0,0 km/h (0 Bft)
23.08.2014 07:40 11,6 C 10,6 C 98 % 1012,0 hPa 0,0 l/m 0 min 0 min 0,0 UV-I 55 W/m 0,0 km/h (0 Bft)
23.08.2014 07:42 11,6 C 10,6 C 98 % 1012,0 hPa 0,0 l/m 0 min 0 min 0,0 UV-I 59 W/m 0,0 km/h (0 Bft)
23.08.2014 07:44 11,6 C 10,6 C 98 % 1012,0 hPa 0,0 l/m 0 min 0 min 0,0 UV-I 63 W/m 0,0 km/h (0 Bft)
23.08.2014 07:46 11,6 C 10,6 C 98 % 1012,0 hPa 0,0 l/m 0 min 0 min 0,0 UV-I 66 W/m 0,0 km/h (0 Bft)
23.08.2014 07:48 11,6 C 10,6 C 98 % 1012,0 hPa 0,0 l/m 0 min 0 min 0,0 UV-I 89 W/m 0,0 km/h (0 Bft)
23.08.2014 07:50 11,5 C 10,6 C 98 % 1012,0 hPa 0,0 l/m 2 min 0 min 0,0 UV-I 103 W/m 0,0 km/h (0 Bft)
23.08.2014 07:52 11,6 C 10,6 C 98 % 1012,1 hPa 0,0 l/m 0 min 0 min 0,0 UV-I 71 W/m 0,0 km/h (0 Bft)
23.08.2014 07:54 11,6 C 10,6 C 98 % 1012,1 hPa 0,0 l/m 0 min 0 min 0,0 UV-I 70 W/m 3,5 km/h (1 Bft)
23.08.2014 07:56 11,6 C 10,6 C 98 % 1012,2 hPa 0,0 l/m 0 min 0 min 0,0 UV-I 76 W/m 0,0 km/h (0 Bft)
23.08.2014 07:58 11,6 C 10,6 C 98 % 1012,2 hPa 0,0 l/m 0 min 0 min 0,0 UV-I 84 W/m 0,0 km/h (0 Bft)
23.08.2014 08:00 11,7 C 10,6 C 98 % 1012,3 hPa 0,0 l/m 2 min 0 min 0,0 UV-I 127 W/m 0,0 km/h (0 Bft)
23.08.2014 08:02 11,7 C 11,1 C 99 % 1012,2 hPa 0,0 l/m 2 min 0 min 0,0 UV-I 135 W/m 0,0 km/h (0 Bft)
23.08.2014 08:04 11,7 C 11,1 C 99 % 1012,4 hPa 0,0 l/m 0 min 0 min 0,0 UV-I 102 W/m 10,7 km/h (2 Bft)
23.08.2014 08:06 11,8 C 11,1 C 99 % 1012,3 hPa 0,0 l/m 2 min 0 min 0,0 UV-I 137 W/m 17,7 km/h (3 Bft)
23.08.2014 08:08 11,9 C 11,1 C 99 % 1012,4 hPa 0,0 l/m 2 min 0 min 0,0 UV-I 166 W/m 14,2 km/h (3 Bft)
23.08.2014 08:10 11,9 C 11,1 C 98 % 1012,4 hPa 0,0 l/m 2 min 0 min 0,0 UV-I 164 W/m 14,2 km/h (3 Bft)
23.08.2014 08:12 11,9 C 11,1 C 98 % 1012,6 hPa 0,0 l/m 2 min 0 min 0,0 UV-I 122 W/m 17,7 km/h (3 Bft)
23.08.2014 08:14 11,9 C 11,1 C 98 % 1012,5 hPa 0,0 l/m 2 min 0 min 0,0 UV-I 158 W/m 3,5 km/h (1 Bft)
23.08.2014 08:16 11,9 C 11,1 C 98 % 1012,5 hPa 0,0 l/m 2 min 0 min 0,0 UV-I 148 W/m 0,0 km/h (0 Bft)
23.08.2014 08:18 12,0 C 11,1 C 98 % 1012,5 hPa 0,0 l/m 0 min 0 min 0,0 UV-I 100 W/m 10,7 km/h (2 Bft)
23.08.2014 08:20 12,0 C 11,1 C 98 % 1012,6 hPa 0,0 l/m 0 min 0 min 0,0 UV-I 108 W/m 14,2 km/h (3 Bft)
23.08.2014 08:22 12,1 C 11,1 C 98 % 1012,6 hPa 0,2 l/m 0 min 0 min 0,0 UV-I 81 W/m 17,7 km/h (3 Bft)
23.08.2014 08:24 12,0 C 11,1 C 98 % 1012,6 hPa 0,0 l/m 0 min 0 min 0,0 UV-I 67 W/m 17,7 km/h (3 Bft)
23.08.2014 08:26 12,0 C 11,1 C 98 % 1012,6 hPa 0,0 l/m 0 min 0 min 0,0 UV-I 67 W/m 0,0 km/h (0 Bft)
23.08.2014 08:28 12,1 C 11,1 C 98 % 1012,6 hPa 0,0 l/m 0 min 0 min 0,0 UV-I 81 W/m 0,0 km/h (0 Bft)
23.08.2014 08:30 12,1 C 11,1 C 99 % 1012,6 hPa 0,0 l/m 0 min 0 min 0,0 UV-I 114 W/m 14,2 km/h (3 Bft)
23.08.2014 08:32 12,2 C 11,7 C 99 % 1012,7 hPa 0,0 l/m 0 min 0 min 0,0 UV-I 123 W/m 0,0 km/h (0 Bft)
23.08.2014 08:34 12,2 C 11,7 C 98 % 1012,7 hPa 0,0 l/m 0 min 0 min 0,0 UV-I 117 W/m 10,7 km/h (2 Bft)
23.08.2014 08:36 12,3 C 11,7 C 98 % 1012,6 hPa 0,0 l/m 0 min 0 min 0,0 UV-I 108 W/m 21,3 km/h (4 Bft)
23.08.2014 08:38 12,3 C 11,7 C 98 % 1012,7 hPa 0,0 l/m 0 min 0 min 0,0 UV-I 105 W/m 10,7 km/h (2 Bft)
23.08.2014 08:40 12,3 C 11,7 C 98 % 1012,7 hPa 0,0 l/m 0 min 0 min 0,0 UV-I 113 W/m 14,2 km/h (3 Bft)
23.08.2014 08:42 12,4 C 11,7 C 98 % 1012,7 hPa 0,0 l/m 2 min 0 min 0,0 UV-I 164 W/m 10,7 km/h (2 Bft)
23.08.2014 08:44 12,5 C 11,7 C 99 % 1012,6 hPa 0,0 l/m 0 min 0 min 0,0 UV-I 158 W/m 17,7 km/h (3 Bft)
23.08.2014 08:46 12,5 C 11,7 C 99 % 1012,6 hPa 0,0 l/m 0 min 0 min 0,0 UV-I 131 W/m 17,7 km/h (3 Bft)
23.08.2014 08:48 12,5 C 11,7 C 98 % 1012,7 hPa 0,0 l/m 0 min 0 min 0,0 UV-I 126 W/m 17,7 km/h (3 Bft)
23.08.2014 08:50 12,5 C 11,7 C 98 % 1012,7 hPa 0,0 l/m 0 min 0 min 0,0 UV-I 93 W/m 17,7 km/h (3 Bft)
23.08.2014 08:52 12,5 C 11,7 C 98 % 1012,7 hPa 0,0 l/m 0 min 0 min 0,0 UV-I 99 W/m 17,7 km/h (3 Bft)
23.08.2014 08:54 12,4 C 11,7 C 98 % 1012,8 hPa 0,0 l/m 0 min 0 min 0,0 UV-I 113 W/m 24,7 km/h (4 Bft)
23.08.2014 08:56 12,4 C 11,7 C 98 % 1012,8 hPa 0,0 l/m 2 min 0 min 0,0 UV-I 216 W/m 21,3 km/h (4 Bft)
23.08.2014 08:58 12,6 C 11,7 C 98 % 1012,8 hPa 0,0 l/m 2 min 0 min 0,0 UV-I 305 W/m 21,3 km/h (4 Bft)
23.08.2014 09:00 12,7 C 11,7 C 98 % 1012,7 hPa 0,0 l/m 2 min 0 min 0,0 UV-I 292 W/m 24,7 km/h (4 Bft)
23.08.2014 09:02 12,7 C 11,7 C 98 % 1012,7 hPa 0,0 l/m 2 min 0 min 0,0 UV-I 214 W/m 31,7 km/h (5 Bft)
23.08.2014 09:04 12,7 C 11,7 C 98 % 1012,7 hPa 0,0 l/m 2 min 0 min 0,0 UV-I 237 W/m 21,3 km/h (4 Bft)
23.08.2014 09:06 12,8 C 11,7 C 98 % 1012,7 hPa 0,0 l/m 2 min 0 min 0,0 UV-I 218 W/m 17,7 km/h (3 Bft)
23.08.2014 09:08 12,9 C 11,7 C 98 % 1012,7 hPa 0,0 l/m 2 min 0 min 0,0 UV-I 238 W/m 21,3 km/h (4 Bft)
23.08.2014 09:10 12,9 C 11,7 C 98 % 1012,7 hPa 0,0 l/m 2 min 0 min 0,0 UV-I 407 W/m 24,7 km/h (4 Bft)
23.08.2014 09:12 13,2 C 12,2 C 98 % 1012,6 hPa 0,0 l/m 2 min 0 min 0,0 UV-I 425 W/m 17,7 km/h (3 Bft)
23.08.2014 09:14 13,2 C 12,2 C 97 % 1012,6 hPa 0,0 l/m 2 min 0 min 0,2 UV-I 423 W/m 24,7 km/h (4 Bft)
23.08.2014 09:16 13,3 C 12,2 C 97 % 1012,6 hPa 0,0 l/m 2 min 0 min 0,3 UV-I 396 W/m 21,3 km/h (4 Bft)
23.08.2014 09:18 13,4 C 12,2 C 97 % 1012,6 hPa 0,0 l/m 2 min 0 min 0,3 UV-I 422 W/m 24,7 km/h (4 Bft)
23.08.2014 09:20 13,5 C 12,2 C 97 % 1012,6 hPa 0,0 l/m 2 min 0 min 0,1 UV-I 366 W/m 17,7 km/h (3 Bft)
23.08.2014 09:22 13,5 C 12,2 C 96 % 1012,6 hPa 0,0 l/m 2 min 0 min 0,0 UV-I 302 W/m 31,7 km/h (5 Bft)
23.08.2014 09:24 13,4 C 12,2 C 96 % 1012,7 hPa 0,0 l/m 2 min 0 min 0,1 UV-I 308 W/m 24,7 km/h (4 Bft)
23.08.2014 09:26 13,5 C 12,2 C 96 % 1012,6 hPa 0,0 l/m 2 min 0 min 0,3 UV-I 251 W/m 21,3 km/h (4 Bft)
23.08.2014 09:28 13,7 C 12,2 C 95 % 1012,6 hPa 0,0 l/m 2 min 0 min 0,2 UV-I 241 W/m 24,7 km/h (4 Bft)
23.08.2014 09:30 13,8 C 12,2 C 95 % 1012,6 hPa 0,0 l/m 2 min 0 min 0,1 UV-I 294 W/m 24,7 km/h (4 Bft)
23.08.2014 09:32 13,8 C 12,2 C 95 % 1012,6 hPa 0,0 l/m 2 min 0 min 0,1 UV-I 360 W/m 28,2 km/h (4 Bft)
23.08.2014 09:34 13,9 C 12,8 C 94 % 1012,7 hPa 0,0 l/m 2 min 0 min 0,0 UV-I 276 W/m 21,3 km/h (4 Bft)
23.08.2014 09:36 13,9 C 12,8 C 94 % 1012,7 hPa 0,0 l/m 0 min 0 min 0,0 UV-I 206 W/m 24,7 km/h (4 Bft)
23.08.2014 09:38 13,9 C 12,2 C 93 % 1012,7 hPa 0,0 l/m 0 min 0 min 0,0 UV-I 180 W/m 21,3 km/h (4 Bft)
23.08.2014 09:40 13,9 C 12,2 C 93 % 1012,6 hPa 0,0 l/m 0 min 0 min 0,0 UV-I 163 W/m 21,3 km/h (4 Bft)
23.08.2014 09:42 13,9 C 12,2 C 92 % 1012,7 hPa 0,0 l/m 0 min 0 min 0,0 UV-I 165 W/m 17,7 km/h (3 Bft)
23.08.2014 09:44 13,8 C 12,2 C 92 % 1012,6 hPa 0,0 l/m 0 min 0 min 0,0 UV-I 202 W/m 21,3 km/h (4 Bft)
23.08.2014 09:46 13,9 C 12,2 C 92 % 1012,6 hPa 0,0 l/m 0 min 0 min 0,0 UV-I 147 W/m 14,2 km/h (3 Bft)
23.08.2014 09:48 13,9 C 12,2 C 92 % 1012,7 hPa 0,0 l/m 0 min 0 min 0,0 UV-I 142 W/m 24,7 km/h (4 Bft)
23.08.2014 09:50 13,9 C 12,8 C 92 % 1012,7 hPa 0,0 l/m 0 min 0 min 0,0 UV-I 171 W/m 28,2 km/h (4 Bft)
23.08.2014 09:52 13,8 C 12,8 C 92 % 1012,8 hPa 0,0 l/m 0 min 0 min 0,0 UV-I 168 W/m 31,7 km/h (5 Bft)
23.08.2014 09:54 13,7 C 12,2 C 91 % 1012,8 hPa 0,0 l/m 0 min 0 min 0,1 UV-I 191 W/m 42,4 km/h (6 Bft)
23.08.2014 09:56 13,7 C 12,8 C 91 % 1012,8 hPa 0,0 l/m 2 min 0 min 0,9 UV-I 307 W/m 35,4 km/h (5 Bft)
23.08.2014 09:58 13,7 C 12,8 C 91 % 1012,7 hPa 0,0 l/m 2 min 0 min 1,0 UV-I 399 W/m 31,7 km/h (5 Bft)
23.08.2014 10:00 13,9 C 13,3 C 91 % 1012,8 hPa 0,0 l/m 2 min 0 min 1,2 UV-I 475 W/m 24,7 km/h (4 Bft)
23.08.2014 10:02 14,0 C 13,3 C 91 % 1012,7 hPa 0,0 l/m 2 min 0 min 1,2 UV-I 509 W/m 31,7 km/h (5 Bft)
23.08.2014 10:04 14,1 C 12,8 C 91 % 1012,7 hPa 0,0 l/m 2 min 0 min 1,1 UV-I 504 W/m 28,2 km/h (4 Bft)
23.08.2014 10:06 14,2 C 13,3 C 90 % 1012,7 hPa 0,0 l/m 2 min 0 min 1,3 UV-I 537 W/m 28,2 km/h (4 Bft)
23.08.2014 10:08 14,4 C 13,3 C 90 % 1012,8 hPa 0,0 l/m 2 min 0 min 1,2 UV-I 592 W/m 31,7 km/h (5 Bft)
23.08.2014 10:10 14,5 C 13,3 C 89 % 1012,8 hPa 0,0 l/m 2 min 0 min 0,6 UV-I 496 W/m 31,7 km/h (5 Bft)
23.08.2014 10:12 14,4 C 12,8 C 89 % 1012,8 hPa 0,0 l/m 0 min 0 min 0,0 UV-I 188 W/m 28,2 km/h (4 Bft)
23.08.2014 10:14 14,3 C 12,8 C 88 % 1012,8 hPa 0,0 l/m 0 min 0 min 0,0 UV-I 177 W/m 31,7 km/h (5 Bft)
23.08.2014 10:16 14,3 C 12,8 C 89 % 1012,8 hPa 0,0 l/m 0 min 0 min 0,0 UV-I 187 W/m 31,7 km/h (5 Bft)
23.08.2014 10:18 14,3 C 12,8 C 89 % 1012,8 hPa 0,0 l/m 0 min 0 min 0,0 UV-I 196 W/m 28,2 km/h (4 Bft)
23.08.2014 10:20 14,2 C 12,8 C 89 % 1012,9 hPa 0,0 l/m 0 min 0 min 0,0 UV-I 197 W/m 38,9 km/h (6 Bft)
23.08.2014 10:22 14,2 C 12,8 C 89 % 1012,8 hPa 0,0 l/m 0 min 0 min 0,5 UV-I 209 W/m 28,2 km/h (4 Bft)
23.08.2014 10:24 14,2 C 13,3 C 89 % 1012,8 hPa 0,0 l/m 2 min 0 min 0,7 UV-I 278 W/m 28,2 km/h (4 Bft)
23.08.2014 10:26 14,4 C 13,3 C 89 % 1012,8 hPa 0,0 l/m 2 min 0 min 0,6 UV-I 291 W/m 28,2 km/h (4 Bft)
23.08.2014 10:28 14,4 C 13,3 C 89 % 1012,9 hPa 0,0 l/m 2 min 0 min 0,7 UV-I 359 W/m 24,7 km/h (4 Bft)
23.08.2014 10:30 14,6 C 13,9 C 90 % 1012,8 hPa 0,0 l/m 2 min 0 min 1,0 UV-I 359 W/m 21,3 km/h (4 Bft)
23.08.2014 10:32 14,7 C 13,3 C 90 % 1012,8 hPa 0,0 l/m 0 min 0 min 0,5 UV-I 271 W/m 24,7 km/h (4 Bft)
23.08.2014 10:34 14,7 C 13,3 C 89 % 1012,9 hPa 0,0 l/m 0 min 0 min 0,2 UV-I 183 W/m 21,3 km/h (4 Bft)
23.08.2014 10:36 14,7 C 13,3 C 89 % 1012,8 hPa 0,0 l/m 0 min 0 min 0,0 UV-I 158 W/m 17,7 km/h (3 Bft)
23.08.2014 10:38 14,7 C 13,3 C 89 % 1012,8 hPa 0,0 l/m 0 min 0 min 0,0 UV-I 136 W/m 24,7 km/h (4 Bft)
23.08.2014 10:40 14,6 C 13,3 C 88 % 1012,9 hPa 0,0 l/m 0 min 0 min 0,0 UV-I 136 W/m 42,4 km/h (6 Bft)
23.08.2014 10:42 14,4 C 13,3 C 88 % 1012,9 hPa 0,0 l/m 0 min 0 min 0,0 UV-I 145 W/m 38,9 km/h (6 Bft)
23.08.2014 10:44 14,4 C 13,3 C 88 % 1012,9 hPa 0,0 l/m 0 min 0 min 0,0 UV-I 140 W/m 17,7 km/h (3 Bft)
23.08.2014 10:46 14,4 C 13,3 C 89 % 1012,9 hPa 0,0 l/m 0 min 0 min 0,3 UV-I 123 W/m 24,7 km/h (4 Bft)
23.08.2014 10:48 14,3 C 13,3 C 88 % 1012,9 hPa 0,0 l/m 0 min 0 min 0,6 UV-I 153 W/m 21,3 km/h (4 Bft)
23.08.2014 10:50 14,3 C 13,9 C 88 % 1012,9 hPa 0,0 l/m 0 min 0 min 0,8 UV-I 220 W/m 35,4 km/h (5 Bft)
23.08.2014 10:52 14,4 C 13,9 C 88 % 1012,9 hPa 0,0 l/m 0 min 0 min 1,0 UV-I 229 W/m 31,7 km/h (5 Bft)
23.08.2014 10:54 14,4 C 13,9 C 88 % 1012,9 hPa 0,0 l/m 0 min 0 min 1,2 UV-I 225 W/m 31,7 km/h (5 Bft)
23.08.2014 10:56 14,4 C 13,9 C 88 % 1012,9 hPa 0,0 l/m 0 min 0 min 1,5 UV-I 211 W/m 24,7 km/h (4 Bft)
23.08.2014 10:58 14,7 C 14,4 C 89 % 1012,9 hPa 0,0 l/m 2 min 0 min 2,2 UV-I 572 W/m 31,7 km/h (5 Bft)
23.08.2014 11:00 15,1 C 15,0 C 89 % 1012,9 hPa 0,0 l/m 2 min 0 min 2,0 UV-I 722 W/m 24,7 km/h (4 Bft)
23.08.2014 11:02 15,3 C 15,0 C 88 % 1012,9 hPa 0,0 l/m 2 min 0 min 2,0 UV-I 735 W/m 28,2 km/h (4 Bft)
23.08.2014 11:04 15,6 C 15,6 C 87 % 1012,9 hPa 0,0 l/m 2 min 0 min 2,3 UV-I 792 W/m 21,3 km/h (4 Bft)
23.08.2014 11:06 15,8 C 15,6 C 86 % 1012,9 hPa 0,0 l/m 2 min 0 min 1,7 UV-I 756 W/m 28,2 km/h (4 Bft)
23.08.2014 11:08 15,8 C 15,6 C 84 % 1012,9 hPa 0,0 l/m 2 min 0 min 1,8 UV-I 688 W/m 28,2 km/h (4 Bft)
23.08.2014 11:10 16,1 C 16,1 C 85 % 1012,9 hPa 0,0 l/m 2 min 0 min 1,8 UV-I 445 W/m 21,3 km/h (4 Bft)
23.08.2014 11:12 16,3 C 16,1 C 84 % 1012,9 hPa 0,0 l/m 2 min 0 min 1,6 UV-I 445 W/m 28,2 km/h (4 Bft)
23.08.2014 11:14 16,3 C 16,1 C 84 % 1012,9 hPa 0,0 l/m 2 min 0 min 1,7 UV-I 339 W/m 28,2 km/h (4 Bft)
23.08.2014 11:16 16,2 C 15,6 C 82 % 1013,0 hPa 0,0 l/m 2 min 0 min 2,1 UV-I 413 W/m 35,4 km/h (5 Bft)
23.08.2014 11:18 16,3 C 15,6 C 83 % 1012,9 hPa 0,0 l/m 2 min 0 min 2,5 UV-I 678 W/m 38,9 km/h (6 Bft)
23.08.2014 11:20 16,4 C 16,1 C 83 % 1013,0 hPa 0,0 l/m 2 min 0 min 2,5 UV-I 706 W/m 24,7 km/h (4 Bft)
23.08.2014 11:22 16,6 C 16,1 C 82 % 1013,0 hPa 0,0 l/m 2 min 0 min 1,7 UV-I 709 W/m 28,2 km/h (4 Bft)
23.08.2014 11:24 16,4 C 15,6 C 82 % 1013,0 hPa 0,0 l/m 0 min 0 min 1,1 UV-I 229 W/m 21,3 km/h (4 Bft)
23.08.2014 11:26 16,3 C 15,6 C 83 % 1013,0 hPa 0,0 l/m 0 min 0 min 1,3 UV-I 210 W/m 28,2 km/h (4 Bft)
23.08.2014 11:28 16,2 C 15,6 C 83 % 1013,0 hPa 0,0 l/m 0 min 0 min 2,0 UV-I 253 W/m 31,7 km/h (5 Bft)
23.08.2014 11:30 16,3 C 16,1 C 83 % 1013,0 hPa 0,0 l/m 2 min 0 min 2,2 UV-I 767 W/m 24,7 km/h (4 Bft)
23.08.2014 11:32 16,4 C 16,1 C 83 % 1013,0 hPa 0,0 l/m 2 min 0 min 2,5 UV-I 789 W/m 21,3 km/h (4 Bft)
23.08.2014 11:34 16,7 C 16,1 C 83 % 1012,9 hPa 0,0 l/m 2 min 0 min 2,3 UV-I 791 W/m 17,7 km/h (3 Bft)
23.08.2014 11:36 16,9 C 16,7 C 82 % 1012,9 hPa 0,0 l/m 2 min 0 min 2,0 UV-I 789 W/m 35,4 km/h (5 Bft)
23.08.2014 11:38 16,9 C 16,7 C 81 % 1012,9 hPa 0,0 l/m 2 min 0 min 2,7 UV-I 767 W/m 38,9 km/h (6 Bft)
23.08.2014 11:40 17,0 C 16,7 C 78 % 1012,9 hPa 0,0 l/m 2 min 0 min 2,7 UV-I 756 W/m 38,9 km/h (6 Bft)
23.08.2014 11:42 17,0 C 16,7 C 79 % 1012,9 hPa 0,0 l/m 2 min 0 min 2,4 UV-I 760 W/m 38,9 km/h (6 Bft)
23.08.2014 11:44 17,2 C 16,7 C 80 % 1012,9 hPa 0,0 l/m 2 min 0 min 2,8 UV-I 801 W/m 31,7 km/h (5 Bft)
23.08.2014 11:46 17,2 C 16,1 C 78 % 1012,9 hPa 0,0 l/m 2 min 0 min 1,8 UV-I 549 W/m 35,4 km/h (5 Bft)
23.08.2014 11:48 16,9 C 16,1 C 78 % 1012,9 hPa 0,0 l/m 0 min 0 min 2,3 UV-I 218 W/m 31,7 km/h (5 Bft)
23.08.2014 11:50 16,8 C 16,1 C 77 % 1012,9 hPa 0,0 l/m 2 min 0 min 3,0 UV-I 440 W/m 21,3 km/h (4 Bft)
23.08.2014 11:52 16,8 C 16,1 C 79 % 1012,9 hPa 0,0 l/m 2 min 0 min 3,0 UV-I 431 W/m 28,2 km/h (4 Bft)
23.08.2014 11:54 16,9 C 16,1 C 78 % 1012,9 hPa 0,0 l/m 0 min 0 min 3,1 UV-I 328 W/m 31,7 km/h (5 Bft)
23.08.2014 11:56 17,0 C 16,1 C 78 % 1012,8 hPa 0,0 l/m 0 min 0 min 3,1 UV-I 345 W/m 28,2 km/h (4 Bft)
23.08.2014 11:58 17,2 C 16,7 C 78 % 1012,8 hPa 0,0 l/m 2 min 0 min 3,1 UV-I 472 W/m 28,2 km/h (4 Bft)
23.08.2014 12:00 17,3 C 16,7 C 78 % 1012,9 hPa 0,0 l/m 2 min 0 min 3,1 UV-I 627 W/m 38,9 km/h (6 Bft)
23.08.2014 12:02 17,4 C 16,7 C 76 % 1012,9 hPa 0,0 l/m 2 min 0 min 3,1 UV-I 713 W/m 35,4 km/h (5 Bft)
23.08.2014 12:05 17,3 C 16,7 C 75 % 1012,8 hPa 0,0 l/m 2 min 0 min 2,6 UV-I 634 W/m 46,0 km/h (6 Bft)
23.08.2014 12:06 17,2 C 16,7 C 78 % 1012,8 hPa 0,0 l/m 0 min 0 min 1,5 UV-I 239 W/m 46,0 km/h (6 Bft)
23.08.2014 12:08 17,0 C 16,1 C 77 % 1012,9 hPa 0,0 l/m 0 min 0 min 1,5 UV-I 161 W/m 38,9 km/h (6 Bft)
23.08.2014 12:10 16,6 C 16,1 C 77 % 1012,8 hPa 0,0 l/m 0 min 0 min 1,8 UV-I 148 W/m 38,9 km/h (6 Bft)
23.08.2014 12:12 16,4 C 15,6 C 78 % 1012,9 hPa 0,0 l/m 0 min 0 min 2,7 UV-I 177 W/m 28,2 km/h (4 Bft)
23.08.2014 12:14 16,5 C 16,1 C 78 % 1012,8 hPa 0,0 l/m 0 min 0 min 3,3 UV-I 149 W/m 31,7 km/h (5 Bft)
23.08.2014 12:16 16,6 C 16,1 C 77 % 1012,9 hPa 0,0 l/m 0 min 0 min 3,3 UV-I 149 W/m 49,5 km/h (6 Bft)
23.08.2014 12:18 16,9 C 16,7 C 78 % 1012,8 hPa 0,0 l/m 2 min 0 min 3,3 UV-I 479 W/m 31,7 km/h (5 Bft)
23.08.2014 12:20 17,2 C 16,7 C 78 % 1012,8 hPa 0,0 l/m 2 min 0 min 3,4 UV-I 721 W/m 24,7 km/h (4 Bft)
23.08.2014 12:22 17,4 C 16,7 C 76 % 1012,8 hPa 0,0 l/m 2 min 0 min 3,3 UV-I 694 W/m 35,4 km/h (5 Bft)
23.08.2014 12:24 17,4 C 17,2 C 76 % 1012,8 hPa 0,0 l/m 2 min 0 min 3,4 UV-I 712 W/m 42,4 km/h (6 Bft)
23.08.2014 12:26 17,4 C 16,7 C 75 % 1012,8 hPa 0,0 l/m 2 min 0 min 2,8 UV-I 752 W/m 35,4 km/h (5 Bft)
23.08.2014 12:28 17,4 C 17,2 C 73 % 1012,7 hPa 0,0 l/m 2 min 0 min 3,4 UV-I 736 W/m 38,9 km/h (6 Bft)
23.08.2014 12:30 17,4 C 17,2 C 75 % 1012,7 hPa 0,0 l/m 2 min 0 min 3,4 UV-I 724 W/m 24,7 km/h (4 Bft)
23.08.2014 12:32 17,6 C 17,2 C 75 % 1012,7 hPa 0,0 l/m 2 min 0 min 3,3 UV-I 723 W/m 24,7 km/h (4 Bft)
23.08.2014 12:34 17,8 C 17,2 C 75 % 1012,7 hPa 0,0 l/m 2 min 0 min 3,0 UV-I 729 W/m 21,3 km/h (4 Bft)
23.08.2014 12:36 18,1 C 17,8 C 76 % 1012,7 hPa 0,0 l/m 2 min 0 min 2,5 UV-I 725 W/m 31,7 km/h (5 Bft)
23.08.2014 12:38 18,1 C 17,8 C 73 % 1012,7 hPa 0,0 l/m 2 min 0 min 2,1 UV-I 697 W/m 46,0 km/h (6 Bft)
23.08.2014 12:40 18,1 C 17,8 C 73 % 1012,7 hPa 0,0 l/m 2 min 0 min 2,0 UV-I 741 W/m 38,9 km/h (6 Bft)
23.08.2014 12:42 18,2 C 17,8 C 73 % 1012,7 hPa 0,0 l/m 2 min 0 min 2,1 UV-I 761 W/m 31,7 km/h (5 Bft)
23.08.2014 12:44 18,0 C 17,8 C 71 % 1012,7 hPa 0,0 l/m 2 min 0 min 2,3 UV-I 763 W/m 28,2 km/h (4 Bft)
23.08.2014 12:46 17,9 C 17,8 C 74 % 1012,7 hPa 0,0 l/m 2 min 0 min 2,9 UV-I 748 W/m 31,7 km/h (5 Bft)
23.08.2014 12:48 17,9 C 17,8 C 72 % 1012,7 hPa 0,0 l/m 2 min 0 min 3,5 UV-I 730 W/m 42,4 km/h (6 Bft)
23.08.2014 12:50 17,8 C 17,8 C 73 % 1012,7 hPa 0,0 l/m 2 min 0 min 3,6 UV-I 734 W/m 35,4 km/h (5 Bft)
23.08.2014 12:52 17,8 C 17,8 C 73 % 1012,7 hPa 0,0 l/m 2 min 0 min 3,6 UV-I 744 W/m 31,7 km/h (5 Bft)
23.08.2014 12:54 17,9 C 17,8 C 73 % 1012,7 hPa 0,0 l/m 2 min 0 min 3,6 UV-I 774 W/m 35,4 km/h (5 Bft)
23.08.2014 12:56 18,1 C 17,8 C 72 % 1012,7 hPa 0,0 l/m 2 min 0 min 3,7 UV-I 766 W/m 42,4 km/h (6 Bft)
23.08.2014 12:58 18,2 C 17,8 C 72 % 1012,6 hPa 0,0 l/m 2 min 0 min 3,7 UV-I 743 W/m 42,4 km/h (6 Bft)
23.08.2014 13:00 18,3 C 18,3 C 72 % 1012,6 hPa 0,0 l/m 2 min 0 min 3,7 UV-I 756 W/m 46,0 km/h (6 Bft)
23.08.2014 13:02 18,4 C 18,3 C 72 % 1012,7 hPa 0,0 l/m 2 min 0 min 3,7 UV-I 782 W/m 31,7 km/h (5 Bft)
23.08.2014 13:04 18,5 C 18,3 C 72 % 1012,6 hPa 0,0 l/m 2 min 0 min 3,7 UV-I 788 W/m 38,9 km/h (6 Bft)
23.08.2014 13:06 18,7 C 18,9 C 73 % 1012,7 hPa 0,0 l/m 2 min 0 min 3,7 UV-I 791 W/m 21,3 km/h (4 Bft)
23.08.2014 13:08 19,0 C 18,9 C 72 % 1012,7 hPa 0,0 l/m 2 min 0 min 3,6 UV-I 803 W/m 35,4 km/h (5 Bft)
23.08.2014 13:10 18,9 C 18,9 C 71 % 1012,8 hPa 0,0 l/m 2 min 0 min 3,0 UV-I 834 W/m 24,7 km/h (4 Bft)
23.08.2014 13:12 18,9 C 18,9 C 70 % 1012,7 hPa 0,0 l/m 2 min 0 min 3,7 UV-I 780 W/m 38,9 km/h (6 Bft)
23.08.2014 13:14 18,8 C 18,3 C 70 % 1012,8 hPa 0,0 l/m 2 min 0 min 3,2 UV-I 795 W/m 31,7 km/h (5 Bft)
23.08.2014 13:16 18,6 C 18,3 C 70 % 1012,8 hPa 0,0 l/m 2 min 0 min 3,5 UV-I 796 W/m 28,2 km/h (4 Bft)
23.08.2014 13:18 18,5 C 18,3 C 71 % 1012,7 hPa 0,0 l/m 2 min 0 min 2,8 UV-I 796 W/m 31,7 km/h (5 Bft)
23.08.2014 13:20 18,3 C 17,8 C 69 % 1012,7 hPa 0,0 l/m 0 min 0 min 2,0 UV-I 286 W/m 31,7 km/h (5 Bft)
23.08.2014 13:22 18,2 C 17,8 C 71 % 1012,7 hPa 0,0 l/m 0 min 0 min 2,8 UV-I 199 W/m 31,7 km/h (5 Bft)
23.08.2014 13:24 18,1 C 17,8 C 71 % 1012,8 hPa 0,0 l/m 0 min 0 min 3,1 UV-I 282 W/m 31,7 km/h (5 Bft)
23.08.2014 13:26 18,2 C 17,8 C 71 % 1012,7 hPa 0,0 l/m 2 min 0 min 3,8 UV-I 744 W/m 21,3 km/h (4 Bft)
23.08.2014 13:28 18,3 C 18,3 C 71 % 1012,7 hPa 0,0 l/m 2 min 0 min 3,7 UV-I 816 W/m 31,7 km/h (5 Bft)
23.08.2014 13:30 18,7 C 18,9 C 73 % 1012,6 hPa 0,0 l/m 2 min 0 min 3,6 UV-I 823 W/m 21,3 km/h (4 Bft)
23.08.2014 13:32 18,8 C 18,9 C 68 % 1012,5 hPa 0,0 l/m 2 min 0 min 3,8 UV-I 844 W/m 38,9 km/h (6 Bft)
23.08.2014 13:34 18,8 C 18,9 C 70 % 1012,5 hPa 0,0 l/m 2 min 0 min 3,6 UV-I 850 W/m 28,2 km/h (4 Bft)
23.08.2014 13:36 19,1 C 18,9 C 69 % 1012,5 hPa 0,0 l/m 2 min 0 min 3,6 UV-I 814 W/m 31,7 km/h (5 Bft)
23.08.2014 13:38 19,3 C 18,9 C 69 % 1012,5 hPa 0,0 l/m 2 min 0 min 3,5 UV-I 809 W/m 14,2 km/h (3 Bft)
23.08.2014 13:40 19,3 C 18,9 C 68 % 1012,7 hPa 0,0 l/m 2 min 0 min 3,6 UV-I 802 W/m 31,7 km/h (5 Bft)
23.08.2014 13:42 19,2 C 18,9 C 67 % 1012,7 hPa 0,0 l/m 2 min 0 min 3,4 UV-I 824 W/m 24,7 km/h (4 Bft)
23.08.2014 13:44 19,0 C 18,3 C 68 % 1012,7 hPa 0,0 l/m 0 min 0 min 2,3 UV-I 373 W/m 31,7 km/h (5 Bft)
23.08.2014 13:46 18,8 C 18,3 C 68 % 1012,7 hPa 0,0 l/m 0 min 0 min 1,7 UV-I 251 W/m 35,4 km/h (5 Bft)
23.08.2014 13:48 18,5 C 17,8 C 70 % 1012,8 hPa 0,0 l/m 0 min 0 min 1,3 UV-I 221 W/m 24,7 km/h (4 Bft)
23.08.2014 13:50 18,2 C 17,2 C 69 % 1012,9 hPa 0,0 l/m 0 min 0 min 0,6 UV-I 166 W/m 74,2 km/h (8 Bft)
23.08.2014 13:52 17,6 C 16,1 C 66 % 1012,9 hPa 0,0 l/m 0 min 0 min 0,1 UV-I 140 W/m 63,7 km/h (8 Bft)
23.08.2014 13:54 16,9 C 15,6 C 66 % 1012,9 hPa 0,0 l/m 0 min 0 min 0,6 UV-I 157 W/m 49,5 km/h (6 Bft)
23.08.2014 13:56 16,2 C 15,0 C 66 % 1012,9 hPa 0,0 l/m 0 min 0 min 0,8 UV-I 185 W/m 77,7 km/h (9 Bft)
23.08.2014 13:58 15,8 C 15,0 C 70 % 1012,9 hPa 0,0 l/m 0 min 0 min 0,9 UV-I 212 W/m 38,9 km/h (6 Bft)
23.08.2014 14:00 15,8 C 15,6 C 70 % 1013,0 hPa 0,0 l/m 2 min 0 min 2,0 UV-I 489 W/m 70,6 km/h (8 Bft)
23.08.2014 14:02 15,8 C 15,6 C 69 % 1013,1 hPa 0,0 l/m 2 min 0 min 2,2 UV-I 909 W/m 56,5 km/h (7 Bft)
23.08.2014 14:04 15,8 C 15,6 C 71 % 1013,2 hPa 0,0 l/m 2 min 0 min 2,0 UV-I 469 W/m 70,6 km/h (8 Bft)
23.08.2014 14:06 15,7 C 15,0 C 69 % 1013,2 hPa 0,0 l/m 0 min 0 min 1,0 UV-I 222 W/m 49,5 km/h (6 Bft)
23.08.2014 14:08 15,4 C 15,0 C 70 % 1013,2 hPa 0,0 l/m 0 min 0 min 1,0 UV-I 238 W/m 49,5 km/h (6 Bft)
23.08.2014 14:10 15,2 C 15,0 C 71 % 1013,1 hPa 0,0 l/m 0 min 0 min 1,3 UV-I 278 W/m 38,9 km/h (6 Bft)
23.08.2014 14:12 15,3 C 15,0 C 73 % 1013,2 hPa 0,0 l/m 0 min 0 min 1,4 UV-I 294 W/m 42,4 km/h (6 Bft)
23.08.2014 14:14 15,2 C 15,0 C 73 % 1013,2 hPa 0,0 l/m 0 min 0 min 1,2 UV-I 249 W/m 49,5 km/h (6 Bft)
23.08.2014 14:16 15,2 C 15,0 C 73 % 1013,2 hPa 0,0 l/m 0 min 0 min 1,0 UV-I 222 W/m 42,4 km/h (6 Bft)
23.08.2014 14:18 15,3 C 15,0 C 75 % 1013,2 hPa 0,0 l/m 0 min 0 min 1,6 UV-I 227 W/m 31,7 km/h (5 Bft)
23.08.2014 14:20 15,7 C 15,6 C 74 % 1013,2 hPa 0,0 l/m 2 min 0 min 3,2 UV-I 831 W/m 46,0 km/h (6 Bft)
23.08.2014 14:22 16,2 C 16,1 C 74 % 1013,2 hPa 0,0 l/m 2 min 0 min 3,2 UV-I 863 W/m 35,4 km/h (5 Bft)
23.08.2014 14:24 16,6 C 16,1 C 72 % 1013,2 hPa 0,0 l/m 2 min 0 min 2,4 UV-I 863 W/m 49,5 km/h (6 Bft)
23.08.2014 14:26 16,6 C 16,1 C 70 % 1013,2 hPa 0,0 l/m 2 min 0 min 1,5 UV-I 782 W/m 31,7 km/h (5 Bft)
23.08.2014 14:28 16,4 C 16,1 C 71 % 1013,2 hPa 0,0 l/m 0 min 0 min 1,3 UV-I 221 W/m 35,4 km/h (5 Bft)
23.08.2014 14:30 16,2 C 16,1 C 71 % 1013,2 hPa 0,0 l/m 0 min 0 min 1,4 UV-I 269 W/m 31,7 km/h (5 Bft)
23.08.2014 14:32 16,1 C 16,1 C 70 % 1013,2 hPa 0,0 l/m 0 min 0 min 2,5 UV-I 295 W/m 53,0 km/h (7 Bft)
23.08.2014 14:34 16,2 C 16,7 C 69 % 1013,2 hPa 0,0 l/m 2 min 0 min 3,1 UV-I 682 W/m 28,2 km/h (4 Bft)
23.08.2014 14:36 16,3 C 16,1 C 69 % 1013,1 hPa 0,0 l/m 2 min 0 min 2,0 UV-I 620 W/m 31,7 km/h (5 Bft)
23.08.2014 14:38 16,1 C 16,1 C 68 % 1013,1 hPa 0,0 l/m 0 min 0 min 1,6 UV-I 298 W/m 38,9 km/h (6 Bft)
23.08.2014 14:40 16,0 C 16,1 C 68 % 1013,1 hPa 0,0 l/m 0 min 0 min 1,7 UV-I 314 W/m 35,4 km/h (5 Bft)
23.08.2014 14:42 15,9 C 16,1 C 70 % 1013,1 hPa 0,0 l/m 0 min 0 min 1,6 UV-I 290 W/m 38,9 km/h (6 Bft)
23.08.2014 14:44 15,8 C 15,6 C 69 % 1013,0 hPa 0,0 l/m 0 min 0 min 1,6 UV-I 304 W/m 31,7 km/h (5 Bft)
23.08.2014 14:46 15,8 C 15,6 C 70 % 1013,1 hPa 0,0 l/m 2 min 0 min 2,1 UV-I 412 W/m 35,4 km/h (5 Bft)
23.08.2014 14:48 16,2 C 16,1 C 72 % 1013,0 hPa 0,0 l/m 2 min 0 min 2,9 UV-I 616 W/m 28,2 km/h (4 Bft)
23.08.2014 14:50 16,4 C 16,1 C 71 % 1013,1 hPa 0,0 l/m 2 min 2 min 2,5 UV-I 677 W/m 35,4 km/h (5 Bft)
23.08.2014 14:52 16,5 C 16,1 C 72 % 1013,1 hPa 0,0 l/m 2 min 0 min 2,6 UV-I 613 W/m 24,7 km/h (4 Bft)
23.08.2014 14:54 16,9 C 16,7 C 73 % 1013,2 hPa 0,0 l/m 2 min 0 min 2,4 UV-I 629 W/m 31,7 km/h (5 Bft)
23.08.2014 14:56 16,9 C 16,7 C 71 % 1013,2 hPa 0,0 l/m 2 min 0 min 2,0 UV-I 440 W/m 35,4 km/h (5 Bft)
23.08.2014 14:58 16,9 C 16,7 C 71 % 1013,3 hPa 0,0 l/m 0 min 0 min 1,5 UV-I 303 W/m 42,4 km/h (6 Bft)
23.08.2014 15:00 16,9 C 16,1 C 70 % 1013,2 hPa 0,0 l/m 0 min 0 min 1,2 UV-I 236 W/m 49,5 km/h (6 Bft)
23.08.2014 15:02 16,8 C 16,1 C 70 % 1013,2 hPa 0,0 l/m 0 min 0 min 0,9 UV-I 200 W/m 28,2 km/h (4 Bft)
23.08.2014 15:04 16,6 C 16,1 C 72 % 1013,2 hPa 0,0 l/m 0 min 0 min 0,6 UV-I 161 W/m 28,2 km/h (4 Bft)
23.08.2014 15:06 16,4 C 15,6 C 71 % 1013,2 hPa 0,0 l/m 0 min 0 min 0,1 UV-I 132 W/m 28,2 km/h (4 Bft)
23.08.2014 15:08 16,3 C 15,6 C 72 % 1013,3 hPa 0,0 l/m 0 min 0 min 0,0 UV-I 128 W/m 31,7 km/h (5 Bft)
23.08.2014 15:10 16,2 C 15,0 C 72 % 1013,3 hPa 0,0 l/m 0 min 0 min 0,0 UV-I 129 W/m 35,4 km/h (5 Bft)
23.08.2014 15:12 15,9 C 15,0 C 72 % 1013,2 hPa 0,0 l/m 0 min 2 min 0,0 UV-I 121 W/m 35,4 km/h (5 Bft)
23.08.2014 15:14 15,7 C 14,4 C 73 % 1013,3 hPa 0,0 l/m 0 min 2 min 0,0 UV-I 110 W/m 24,7 km/h (4 Bft)
23.08.2014 15:16 15,5 C 14,4 C 75 % 1013,2 hPa 0,0 l/m 0 min 2 min 0,0 UV-I 102 W/m 28,2 km/h (4 Bft)
23.08.2014 15:18 15,3 C 13,9 C 75 % 1013,3 hPa 0,0 l/m 0 min 0 min 0,0 UV-I 92 W/m 24,7 km/h (4 Bft)
23.08.2014 15:20 15,2 C 13,9 C 75 % 1013,3 hPa 0,0 l/m 0 min 0 min 0,0 UV-I 80 W/m 21,3 km/h (4 Bft)
23.08.2014 15:22 15,2 C 13,9 C 76 % 1013,3 hPa 0,0 l/m 0 min 0 min 0,0 UV-I 76 W/m 21,3 km/h (4 Bft)
23.08.2014 15:24 15,1 C 13,9 C 76 % 1013,3 hPa 0,0 l/m 0 min 2 min 0,0 UV-I 75 W/m 21,3 km/h (4 Bft)
23.08.2014 15:26 15,0 C 13,9 C 75 % 1013,3 hPa 0,0 l/m 0 min 2 min 0,0 UV-I 67 W/m 28,2 km/h (4 Bft)
23.08.2014 15:28 14,8 C 13,9 C 75 % 1013,4 hPa 0,0 l/m 0 min 0 min 0,0 UV-I 60 W/m 28,2 km/h (4 Bft)
23.08.2014 15:30 14,8 C 13,9 C 76 % 1013,4 hPa 0,0 l/m 0 min 0 min 0,0 UV-I 63 W/m 28,2 km/h (4 Bft)
23.08.2014 15:32 14,7 C 13,9 C 75 % 1013,4 hPa 0,0 l/m 0 min 2 min 0,0 UV-I 74 W/m 35,4 km/h (5 Bft)
23.08.2014 15:34 14,7 C 13,9 C 74 % 1013,4 hPa 0,0 l/m 0 min 0 min 0,0 UV-I 95 W/m 28,2 km/h (4 Bft)
23.08.2014 15:36 14,7 C 13,9 C 74 % 1013,3 hPa 0,0 l/m 0 min 0 min 0,0 UV-I 120 W/m 14,2 km/h (3 Bft)
23.08.2014 15:38 14,7 C 13,9 C 76 % 1013,3 hPa 0,0 l/m 0 min 0 min 0,0 UV-I 148 W/m 10,7 km/h (2 Bft)
23.08.2014 15:40 14,8 C 13,9 C 76 % 1013,3 hPa 0,0 l/m 0 min 0 min 0,2 UV-I 174 W/m 10,7 km/h (2 Bft)
23.08.2014 15:42 14,9 C 14,4 C 75 % 1013,3 hPa 0,0 l/m 0 min 0 min 0,5 UV-I 195 W/m 14,2 km/h (3 Bft)
23.08.2014 15:44 15,0 C 14,4 C 75 % 1013,3 hPa 0,0 l/m 0 min 0 min 0,6 UV-I 203 W/m 10,7 km/h (2 Bft)
23.08.2014 15:46 15,1 C 14,4 C 74 % 1013,3 hPa 0,0 l/m 0 min 0 min 0,7 UV-I 206 W/m 14,2 km/h (3 Bft)
23.08.2014 15:48 15,1 C 15,0 C 73 % 1013,2 hPa 0,0 l/m 0 min 0 min 0,7 UV-I 203 W/m 14,2 km/h (3 Bft)
23.08.2014 15:50 15,2 C 15,0 C 73 % 1013,2 hPa 0,0 l/m 0 min 0 min 0,7 UV-I 214 W/m 10,7 km/h (2 Bft)
23.08.2014 15:52 15,3 C 15,0 C 74 % 1013,2 hPa 0,0 l/m 0 min 0 min 0,7 UV-I 247 W/m 14,2 km/h (3 Bft)
23.08.2014 15:54 15,4 C 15,0 C 73 % 1013,2 hPa 0,0 l/m 0 min 0 min 0,9 UV-I 297 W/m 14,2 km/h (3 Bft)
23.08.2014 15:56 15,5 C 15,6 C 73 % 1013,2 hPa 0,0 l/m 2 min 0 min 1,2 UV-I 335 W/m 17,7 km/h (3 Bft)
23.08.2014 15:58 15,7 C 15,6 C 71 % 1013,2 hPa 0,0 l/m 2 min 0 min 1,2 UV-I 347 W/m 17,7 km/h (3 Bft)
23.08.2014 16:00 15,7 C 15,6 C 71 % 1013,2 hPa 0,0 l/m 0 min 0 min 1,1 UV-I 288 W/m 14,2 km/h (3 Bft)
23.08.2014 16:02 15,8 C 15,6 C 72 % 1013,2 hPa 0,0 l/m 0 min 0 min 1,0 UV-I 260 W/m 14,2 km/h (3 Bft)
23.08.2014 16:04 15,8 C 15,6 C 71 % 1013,2 hPa 0,0 l/m 0 min 0 min 0,9 UV-I 258 W/m 14,2 km/h (3 Bft)
23.08.2014 16:06 15,8 C 15,6 C 71 % 1013,2 hPa 0,0 l/m 0 min 0 min 0,9 UV-I 260 W/m 14,2 km/h (3 Bft)
23.08.2014 16:08 15,9 C 15,6 C 71 % 1013,2 hPa 0,0 l/m 0 min 0 min 0,8 UV-I 251 W/m 14,2 km/h (3 Bft)
23.08.2014 16:10 15,8 C 15,6 C 70 % 1013,3 hPa 0,0 l/m 0 min 0 min 0,8 UV-I 244 W/m 17,7 km/h (3 Bft)
23.08.2014 16:12 15,9 C 15,6 C 72 % 1013,2 hPa 0,0 l/m 0 min 0 min 0,9 UV-I 265 W/m 3,5 km/h (1 Bft)
23.08.2014 16:14 15,9 C 15,6 C 71 % 1013,3 hPa 0,0 l/m 0 min 0 min 0,8 UV-I 259 W/m 10,7 km/h (2 Bft)
23.08.2014 16:16 15,9 C 16,1 C 72 % 1013,3 hPa 0,0 l/m 0 min 0 min 0,8 UV-I 260 W/m 17,7 km/h (3 Bft)
23.08.2014 16:18 16,0 C 16,1 C 72 % 1013,3 hPa 0,0 l/m 0 min 0 min 0,9 UV-I 251 W/m 14,2 km/h (3 Bft)
23.08.2014 16:20 16,0 C 15,6 C 70 % 1013,2 hPa 0,0 l/m 0 min 0 min 0,8 UV-I 221 W/m 14,2 km/h (3 Bft)
23.08.2014 16:22 16,0 C 15,6 C 71 % 1013,2 hPa 0,0 l/m 0 min 0 min 0,8 UV-I 205 W/m 17,7 km/h (3 Bft)
23.08.2014 16:24 16,0 C 15,6 C 72 % 1013,2 hPa 0,0 l/m 0 min 0 min 0,7 UV-I 206 W/m 10,7 km/h (2 Bft)
23.08.2014 16:26 16,0 C 15,6 C 71 % 1013,2 hPa 0,0 l/m 0 min 0 min 0,7 UV-I 210 W/m 14,2 km/h (3 Bft)
23.08.2014 16:28 16,0 C 15,6 C 72 % 1013,2 hPa 0,0 l/m 0 min 0 min 0,7 UV-I 204 W/m 21,3 km/h (4 Bft)
23.08.2014 16:30 15,9 C 15,6 C 71 % 1013,3 hPa 0,0 l/m 0 min 0 min 0,6 UV-I 199 W/m 17,7 km/h (3 Bft)
23.08.2014 16:32 15,9 C 15,6 C 71 % 1013,3 hPa 0,0 l/m 0 min 0 min 0,5 UV-I 199 W/m 14,2 km/h (3 Bft)
23.08.2014 16:34 16,0 C 15,6 C 72 % 1013,3 hPa 0,0 l/m 0 min 0 min 0,5 UV-I 198 W/m 14,2 km/h (3 Bft)
23.08.2014 16:36 16,0 C 15,6 C 71 % 1013,3 hPa 0,0 l/m 0 min 0 min 0,2 UV-I 192 W/m 14,2 km/h (3 Bft)
23.08.2014 16:38 16,0 C 15,6 C 72 % 1013,4 hPa 0,0 l/m 0 min 0 min 0,0 UV-I 182 W/m 21,3 km/h (4 Bft)
23.08.2014 16:40 16,0 C 15,6 C 71 % 1013,4 hPa 0,0 l/m 0 min 0 min 0,0 UV-I 174 W/m 17,7 km/h (3 Bft)
23.08.2014 16:42 15,9 C 15,6 C 71 % 1013,4 hPa 0,0 l/m 0 min 0 min 0,0 UV-I 170 W/m 14,2 km/h (3 Bft)
23.08.2014 16:44 15,8 C 15,0 C 72 % 1013,4 hPa 0,0 l/m 0 min 0 min 0,0 UV-I 169 W/m 21,3 km/h (4 Bft)
23.08.2014 16:46 15,8 C 15,0 C 72 % 1013,4 hPa 0,0 l/m 0 min 0 min 0,0 UV-I 167 W/m 14,2 km/h (3 Bft)
23.08.2014 16:48 15,8 C 15,0 C 72 % 1013,4 hPa 0,0 l/m 0 min 0 min 0,0 UV-I 167 W/m 24,7 km/h (4 Bft)
23.08.2014 16:50 15,8 C 15,0 C 74 % 1013,5 hPa 0,0 l/m 0 min 0 min 0,0 UV-I 163 W/m 21,3 km/h (4 Bft)
23.08.2014 16:52 15,8 C 15,0 C 73 % 1013,5 hPa 0,0 l/m 0 min 0 min 0,0 UV-I 147 W/m 17,7 km/h (3 Bft)
23.08.2014 16:54 15,8 C 15,0 C 74 % 1013,5 hPa 0,0 l/m 0 min 0 min 0,0 UV-I 148 W/m 0,0 km/h (0 Bft)
23.08.2014 16:56 15,9 C 15,0 C 74 % 1013,5 hPa 0,0 l/m 0 min 0 min 0,0 UV-I 171 W/m 10,7 km/h (2 Bft)
23.08.2014 16:58 15,9 C 15,6 C 74 % 1013,4 hPa 0,0 l/m 0 min 0 min 0,0 UV-I 209 W/m 14,2 km/h (3 Bft)
23.08.2014 17:00 16,0 C 15,6 C 74 % 1013,4 hPa 0,0 l/m 0 min 0 min 0,0 UV-I 228 W/m 14,2 km/h (3 Bft)
23.08.2014 17:02 16,0 C 15,6 C 73 % 1013,4 hPa 0,0 l/m 0 min 0 min 0,0 UV-I 233 W/m 21,3 km/h (4 Bft)
23.08.2014 17:04 16,0 C 15,6 C 74 % 1013,5 hPa 0,0 l/m 0 min 0 min 0,0 UV-I 208 W/m 21,3 km/h (4 Bft)
23.08.2014 17:06 15,9 C 15,6 C 74 % 1013,5 hPa 0,0 l/m 0 min 0 min 0,0 UV-I 173 W/m 21,3 km/h (4 Bft)
23.08.2014 17:08 16,0 C 15,6 C 74 % 1013,5 hPa 0,0 l/m 0 min 0 min 0,0 UV-I 143 W/m 21,3 km/h (4 Bft)
23.08.2014 17:10 15,9 C 15,6 C 73 % 1013,5 hPa 0,0 l/m 0 min 0 min 0,0 UV-I 133 W/m 24,7 km/h (4 Bft)
23.08.2014 17:12 15,9 C 15,0 C 73 % 1013,5 hPa 0,0 l/m 0 min 0 min 0,0 UV-I 122 W/m 24,7 km/h (4 Bft)
23.08.2014 17:14 15,8 C 15,0 C 73 % 1013,4 hPa 0,0 l/m 0 min 0 min 0,0 UV-I 109 W/m 17,7 km/h (3 Bft)
23.08.2014 17:16 15,7 C 15,0 C 73 % 1013,5 hPa 0,0 l/m 0 min 0 min 0,0 UV-I 100 W/m 17,7 km/h (3 Bft)
23.08.2014 17:18 15,7 C 15,0 C 74 % 1013,4 hPa 0,0 l/m 0 min 0 min 0,0 UV-I 98 W/m 17,7 km/h (3 Bft)
23.08.2014 17:20 15,6 C 15,0 C 74 % 1013,4 hPa 0,0 l/m 0 min 0 min 0,0 UV-I 104 W/m 21,3 km/h (4 Bft)
23.08.2014 17:22 15,6 C 15,0 C 74 % 1013,5 hPa 0,0 l/m 0 min 0 min 0,0 UV-I 136 W/m 21,3 km/h (4 Bft)
23.08.2014 17:24 15,6 C 15,0 C 75 % 1013,4 hPa 0,0 l/m 0 min 0 min 0,0 UV-I 198 W/m 24,7 km/h (4 Bft)
23.08.2014 17:26 15,8 C 15,6 C 75 % 1013,5 hPa 0,0 l/m 2 min 0 min 0,0 UV-I 285 W/m 17,7 km/h (3 Bft)
23.08.2014 17:28 16,0 C 15,6 C 75 % 1013,5 hPa 0,0 l/m 2 min 0 min 0,0 UV-I 308 W/m 10,7 km/h (2 Bft)
23.08.2014 17:30 16,1 C 15,6 C 74 % 1013,6 hPa 0,0 l/m 0 min 0 min 0,0 UV-I 178 W/m 14,2 km/h (3 Bft)
23.08.2014 17:32 16,1 C 15,6 C 74 % 1013,5 hPa 0,0 l/m 0 min 0 min 0,0 UV-I 160 W/m 21,3 km/h (4 Bft)
23.08.2014 17:34 16,1 C 15,0 C 75 % 1013,5 hPa 0,0 l/m 0 min 0 min 0,0 UV-I 168 W/m 17,7 km/h (3 Bft)
23.08.2014 17:36 16,0 C 15,6 C 75 % 1013,6 hPa 0,0 l/m 0 min 0 min 0,0 UV-I 176 W/m 14,2 km/h (3 Bft)
23.08.2014 17:38 16,0 C 15,6 C 75 % 1013,6 hPa 0,0 l/m 0 min 0 min 0,0 UV-I 181 W/m 24,7 km/h (4 Bft)
23.08.2014 17:40 15,9 C 15,6 C 76 % 1013,5 hPa 0,0 l/m 0 min 0 min 0,0 UV-I 188 W/m 21,3 km/h (4 Bft)
23.08.2014 17:42 15,9 C 15,6 C 75 % 1013,5 hPa 0,0 l/m 2 min 0 min 0,0 UV-I 240 W/m 35,4 km/h (5 Bft)
23.08.2014 17:44 15,9 C 15,6 C 76 % 1013,5 hPa 0,0 l/m 2 min 0 min 0,0 UV-I 265 W/m 21,3 km/h (4 Bft)
23.08.2014 17:46 16,0 C 15,6 C 76 % 1013,5 hPa 0,0 l/m 0 min 0 min 0,0 UV-I 179 W/m 21,3 km/h (4 Bft)
23.08.2014 17:48 15,9 C 15,0 C 76 % 1013,5 hPa 0,0 l/m 0 min 0 min 0,0 UV-I 131 W/m 14,2 km/h (3 Bft)
23.08.2014 17:50 15,9 C 15,0 C 76 % 1013,5 hPa 0,0 l/m 0 min 0 min 0,0 UV-I 110 W/m 28,2 km/h (4 Bft)
23.08.2014 17:52 15,8 C 15,0 C 76 % 1013,5 hPa 0,0 l/m 0 min 0 min 0,0 UV-I 121 W/m 28,2 km/h (4 Bft)
23.08.2014 17:54 15,7 C 15,0 C 76 % 1013,5 hPa 0,0 l/m 0 min 0 min 0,0 UV-I 120 W/m 14,2 km/h (3 Bft)
23.08.2014 17:56 15,7 C 15,0 C 77 % 1013,5 hPa 0,0 l/m 0 min 0 min 0,0 UV-I 102 W/m 0,0 km/h (0 Bft)
23.08.2014 17:58 15,6 C 15,0 C 77 % 1013,4 hPa 0,0 l/m 0 min 0 min 0,0 UV-I 89 W/m 14,2 km/h (3 Bft)
23.08.2014 18:00 15,6 C 14,4 C 77 % 1013,4 hPa 0,0 l/m 0 min 0 min 0,0 UV-I 88 W/m 10,7 km/h (2 Bft)
23.08.2014 18:02 15,5 C 14,4 C 78 % 1013,4 hPa 0,0 l/m 0 min 0 min 0,0 UV-I 90 W/m 14,2 km/h (3 Bft)
23.08.2014 18:05 15,4 C 14,4 C 78 % 1013,4 hPa 0,0 l/m 0 min 0 min 0,0 UV-I 169 W/m 24,7 km/h (4 Bft)
23.08.2014 18:06 15,4 C 14,4 C 78 % 1013,4 hPa 0,0 l/m 1 min 0 min 0,0 UV-I 273 W/m 14,2 km/h (3 Bft)
23.08.2014 18:08 15,6 C 15,0 C 79 % 1013,4 hPa 0,0 l/m 2 min 0 min 0,0 UV-I 352 W/m 21,3 km/h (4 Bft)
23.08.2014 18:10 15,6 C 15,0 C 79 % 1013,4 hPa 0,0 l/m 2 min 0 min 0,0 UV-I 367 W/m 24,7 km/h (4 Bft)
23.08.2014 18:12 15,7 C 15,0 C 78 % 1013,4 hPa 0,0 l/m 2 min 0 min 0,0 UV-I 188 W/m 17,7 km/h (3 Bft)
23.08.2014 18:14 15,7 C 14,4 C 78 % 1013,4 hPa 0,0 l/m 0 min 0 min 0,0 UV-I 133 W/m 24,7 km/h (4 Bft)
23.08.2014 18:16 15,7 C 14,4 C 78 % 1013,4 hPa 0,0 l/m 0 min 0 min 0,0 UV-I 130 W/m 24,7 km/h (4 Bft)
23.08.2014 18:18 15,6 C 14,4 C 78 % 1013,3 hPa 0,0 l/m 2 min 0 min 0,0 UV-I 227 W/m 21,3 km/h (4 Bft)
23.08.2014 18:20 15,6 C 14,4 C 78 % 1013,3 hPa 0,0 l/m 2 min 0 min 0,0 UV-I 254 W/m 31,7 km/h (5 Bft)
23.08.2014 18:22 15,7 C 14,4 C 78 % 1013,4 hPa 0,0 l/m 2 min 0 min 0,0 UV-I 276 W/m 28,2 km/h (4 Bft)
23.08.2014 18:24 15,7 C 14,4 C 77 % 1013,3 hPa 0,0 l/m 2 min 0 min 0,0 UV-I 246 W/m 28,2 km/h (4 Bft)
23.08.2014 18:26 15,8 C 14,4 C 77 % 1013,3 hPa 0,0 l/m 2 min 0 min 0,0 UV-I 226 W/m 21,3 km/h (4 Bft)
23.08.2014 18:28 15,8 C 14,4 C 77 % 1013,4 hPa 0,0 l/m 2 min 0 min 0,0 UV-I 183 W/m 31,7 km/h (5 Bft)
23.08.2014 18:30 15,7 C 14,4 C 77 % 1013,3 hPa 0,0 l/m 2 min 0 min 0,0 UV-I 172 W/m 24,7 km/h (4 Bft)
23.08.2014 18:32 15,7 C 14,4 C 77 % 1013,3 hPa 0,0 l/m 0 min 0 min 0,0 UV-I 93 W/m 17,7 km/h (3 Bft)
23.08.2014 18:34 15,7 C 14,4 C 77 % 1013,3 hPa 0,0 l/m 0 min 0 min 0,0 UV-I 109 W/m 21,3 km/h (4 Bft)
23.08.2014 18:36 15,6 C 13,9 C 77 % 1013,3 hPa 0,0 l/m 0 min 0 min 0,0 UV-I 101 W/m 31,7 km/h (5 Bft)
23.08.2014 18:38 15,4 C 13,9 C 77 % 1013,4 hPa 0,0 l/m 0 min 0 min 0,0 UV-I 79 W/m 24,7 km/h (4 Bft)
23.08.2014 18:40 15,3 C 13,9 C 78 % 1013,3 hPa 0,0 l/m 0 min 0 min 0,0 UV-I 73 W/m 21,3 km/h (4 Bft)
23.08.2014 18:42 15,3 C 13,9 C 78 % 1013,3 hPa 0,0 l/m 0 min 0 min 0,0 UV-I 70 W/m 14,2 km/h (3 Bft)
23.08.2014 18:44 15,2 C 13,9 C 78 % 1013,3 hPa 0,0 l/m 0 min 0 min 0,0 UV-I 66 W/m 21,3 km/h (4 Bft)
23.08.2014 18:46 15,2 C 13,9 C 78 % 1013,3 hPa 0,0 l/m 0 min 0 min 0,0 UV-I 66 W/m 24,7 km/h (4 Bft)
23.08.2014 18:48 15,1 C 13,9 C 78 % 1013,3 hPa 0,0 l/m 0 min 0 min 0,0 UV-I 79 W/m 17,7 km/h (3 Bft)
23.08.2014 18:50 15,1 C 13,9 C 79 % 1013,3 hPa 0,0 l/m 0 min 0 min 0,0 UV-I 95 W/m 24,7 km/h (4 Bft)
23.08.2014 18:52 15,1 C 13,9 C 78 % 1013,3 hPa 0,0 l/m 0 min 0 min 0,0 UV-I 102 W/m 24,7 km/h (4 Bft)
23.08.2014 18:54 15,2 C 14,4 C 79 % 1013,3 hPa 0,0 l/m 2 min 0 min 0,0 UV-I 153 W/m 14,2 km/h (3 Bft)
23.08.2014 18:56 15,3 C 14,4 C 79 % 1013,3 hPa 0,0 l/m 2 min 0 min 0,0 UV-I 208 W/m 17,7 km/h (3 Bft)
23.08.2014 18:58 15,4 C 14,4 C 78 % 1013,3 hPa 0,0 l/m 2 min 0 min 0,0 UV-I 178 W/m 17,7 km/h (3 Bft)
23.08.2014 19:00 15,4 C 14,4 C 78 % 1013,3 hPa 0,0 l/m 2 min 0 min 0,0 UV-I 167 W/m 17,7 km/h (3 Bft)
23.08.2014 19:02 15,5 C 14,4 C 79 % 1013,3 hPa 0,0 l/m 2 min 0 min 0,0 UV-I 127 W/m 17,7 km/h (3 Bft)
23.08.2014 19:04 15,5 C 14,4 C 78 % 1013,3 hPa 0,0 l/m 2 min 0 min 0,0 UV-I 140 W/m 28,2 km/h (4 Bft)
23.08.2014 19:06 15,5 C 14,4 C 78 % 1013,3 hPa 0,0 l/m 2 min 0 min 0,0 UV-I 181 W/m 21,3 km/h (4 Bft)
23.08.2014 19:08 15,5 C 14,4 C 78 % 1013,3 hPa 0,0 l/m 2 min 0 min 0,0 UV-I 156 W/m 21,3 km/h (4 Bft)
23.08.2014 19:10 15,5 C 14,4 C 78 % 1013,4 hPa 0,0 l/m 2 min 0 min 0,0 UV-I 138 W/m 21,3 km/h (4 Bft)
23.08.2014 19:12 15,5 C 14,4 C 77 % 1013,4 hPa 0,0 l/m 2 min 0 min 0,0 UV-I 130 W/m 24,7 km/h (4 Bft)
23.08.2014 19:14 15,4 C 13,9 C 78 % 1013,4 hPa 0,0 l/m 2 min 0 min 0,0 UV-I 128 W/m 21,3 km/h (4 Bft)
23.08.2014 19:16 15,4 C 13,9 C 79 % 1013,4 hPa 0,0 l/m 2 min 0 min 0,0 UV-I 116 W/m 21,3 km/h (4 Bft)
23.08.2014 19:18 15,4 C 13,9 C 78 % 1013,4 hPa 0,0 l/m 2 min 0 min 0,0 UV-I 108 W/m 24,7 km/h (4 Bft)
23.08.2014 19:20 15,4 C 13,9 C 79 % 1013,5 hPa 0,0 l/m 2 min 0 min 0,0 UV-I 118 W/m 28,2 km/h (4 Bft)
23.08.2014 19:22 15,4 C 13,9 C 79 % 1013,5 hPa 0,0 l/m 0 min 0 min 0,0 UV-I 91 W/m 21,3 km/h (4 Bft)
23.08.2014 19:24 15,4 C 13,9 C 79 % 1013,4 hPa 0,0 l/m 0 min 0 min 0,0 UV-I 75 W/m 10,7 km/h (2 Bft)
23.08.2014 19:26 15,4 C 13,9 C 79 % 1013,5 hPa 0,0 l/m 0 min 0 min 0,0 UV-I 68 W/m 3,5 km/h (1 Bft)
23.08.2014 19:28 15,4 C 13,9 C 79 % 1013,5 hPa 0,0 l/m 0 min 0 min 0,0 UV-I 59 W/m 21,3 km/h (4 Bft)
23.08.2014 19:30 15,4 C 13,9 C 78 % 1013,5 hPa 0,0 l/m 0 min 0 min 0,0 UV-I 57 W/m 14,2 km/h (3 Bft)
23.08.2014 19:32 15,4 C 13,9 C 79 % 1013,5 hPa 0,0 l/m 0 min 0 min 0,0 UV-I 53 W/m 24,7 km/h (4 Bft)
23.08.2014 19:34 15,4 C 13,9 C 79 % 1013,5 hPa 0,0 l/m 0 min 0 min 0,0 UV-I 51 W/m 24,7 km/h (4 Bft)
23.08.2014 19:36 15,4 C 13,9 C 77 % 1013,5 hPa 0,0 l/m 0 min 0 min 0,0 UV-I 49 W/m 17,7 km/h (3 Bft)
23.08.2014 19:38 15,4 C 13,9 C 77 % 1013,6 hPa 0,0 l/m 0 min 0 min 0,0 UV-I 47 W/m 28,2 km/h (4 Bft)
23.08.2014 19:40 15,4 C 13,9 C 76 % 1013,6 hPa 0,0 l/m 0 min 0 min 0,0 UV-I 46 W/m 21,3 km/h (4 Bft)
23.08.2014 19:42 15,3 C 13,9 C 74 % 1013,7 hPa 0,0 l/m 0 min 0 min 0,0 UV-I 43 W/m 24,7 km/h (4 Bft)
23.08.2014 19:44 15,3 C 13,9 C 72 % 1013,7 hPa 0,0 l/m 0 min 0 min 0,0 UV-I 40 W/m 17,7 km/h (3 Bft)
23.08.2014 19:46 15,3 C 13,3 C 73 % 1013,7 hPa 0,0 l/m 0 min 0 min 0,0 UV-I 42 W/m 21,3 km/h (4 Bft)
23.08.2014 19:48 15,2 C 13,3 C 73 % 1013,7 hPa 0,0 l/m 0 min 0 min 0,0 UV-I 40 W/m 17,7 km/h (3 Bft)
23.08.2014 19:50 15,1 C 13,3 C 73 % 1013,8 hPa 0,0 l/m 0 min 0 min 0,0 UV-I 39 W/m 24,7 km/h (4 Bft)
23.08.2014 19:52 15,1 C 13,3 C 72 % 1013,8 hPa 0,0 l/m 0 min 0 min 0,0 UV-I 38 W/m 21,3 km/h (4 Bft)
23.08.2014 19:54 15,0 C 13,3 C 73 % 1013,8 hPa 0,0 l/m 0 min 0 min 0,0 UV-I 37 W/m 17,7 km/h (3 Bft)
23.08.2014 19:56 15,0 C 13,3 C 72 % 1013,8 hPa 0,0 l/m 0 min 0 min 0,0 UV-I 37 W/m 17,7 km/h (3 Bft)
23.08.2014 19:58 14,9 C 13,3 C 73 % 1013,8 hPa 0,0 l/m 0 min 0 min 0,0 UV-I 35 W/m 21,3 km/h (4 Bft)
23.08.2014 20:00 14,9 C 13,3 C 73 % 1013,8 hPa 0,0 l/m 0 min 0 min 0,0 UV-I 33 W/m 21,3 km/h (4 Bft)
23.08.2014 20:02 14,8 C 12,8 C 73 % 1013,9 hPa 0,0 l/m 0 min 0 min 0,0 UV-I 32 W/m 14,2 km/h (3 Bft)
23.08.2014 20:04 14,7 C 12,8 C 74 % 1013,9 hPa 0,0 l/m 0 min 0 min 0,0 UV-I 30 W/m 17,7 km/h (3 Bft)
23.08.2014 20:06 14,7 C 12,8 C 74 % 1014,0 hPa 0,0 l/m 0 min 0 min 0,0 UV-I 28 W/m 21,3 km/h (4 Bft)
23.08.2014 20:08 14,6 C 12,8 C 75 % 1013,9 hPa 0,0 l/m 0 min 0 min 0,0 UV-I 26 W/m 21,3 km/h (4 Bft)
23.08.2014 20:10 14,5 C 12,8 C 75 % 1014,0 hPa 0,0 l/m 0 min 0 min 0,0 UV-I 25 W/m 0,0 km/h (0 Bft)
23.08.2014 20:12 14,4 C 12,8 C 75 % 1014,0 hPa 0,0 l/m 0 min 0 min 0,0 UV-I 23 W/m 21,3 km/h (4 Bft)
23.08.2014 20:14 14,3 C 12,2 C 76 % 1014,0 hPa 0,0 l/m 0 min 0 min 0,0 UV-I 22 W/m 0,0 km/h (0 Bft)
23.08.2014 20:16 14,2 C 12,2 C 76 % 1014,0 hPa 0,0 l/m 0 min 0 min 0,0 UV-I 20 W/m 3,5 km/h (1 Bft)
23.08.2014 20:18 14,2 C 12,2 C 76 % 1014,0 hPa 0,0 l/m 0 min 0 min 0,0 UV-I 19 W/m 14,2 km/h (3 Bft)
23.08.2014 20:20 14,1 C 12,2 C 77 % 1014,0 hPa 0,0 l/m 0 min 0 min 0,0 UV-I 18 W/m 10,7 km/h (2 Bft)
23.08.2014 20:22 14,0 C 12,2 C 76 % 1014,1 hPa 0,0 l/m 2 min 0 min 0,0 UV-I 16 W/m 0,0 km/h (0 Bft)
23.08.2014 20:24 13,9 C 12,2 C 77 % 1014,1 hPa 0,0 l/m 2 min 0 min 0,0 UV-I 15 W/m 0,0 km/h (0 Bft)
23.08.2014 20:26 13,9 C 11,7 C 77 % 1014,1 hPa 0,0 l/m 2 min 0 min 0,0 UV-I 13 W/m 0,0 km/h (0 Bft)
23.08.2014 20:28 13,8 C 11,7 C 77 % 1014,1 hPa 0,0 l/m 0 min 0 min 0,0 UV-I 12 W/m 3,5 km/h (1 Bft)
23.08.2014 20:30 13,7 C 11,7 C 77 % 1014,1 hPa 0,0 l/m 0 min 0 min 0,0 UV-I 11 W/m 0,0 km/h (0 Bft)
23.08.2014 20:32 13,6 C 11,7 C 77 % 1014,1 hPa 0,0 l/m 0 min 0 min 0,0 UV-I 10 W/m 10,7 km/h (2 Bft)
23.08.2014 20:34 13,6 C 11,7 C 77 % 1014,2 hPa 0,0 l/m 0 min 0 min 0,0 UV-I 9 W/m 0,0 km/h (0 Bft)
23.08.2014 20:36 13,6 C 11,7 C 77 % 1014,2 hPa 0,0 l/m 0 min 0 min 0,0 UV-I 0 W/m 3,5 km/h (1 Bft)
23.08.2014 20:38 13,5 C 11,1 C 78 % 1014,1 hPa 0,0 l/m 0 min 0 min 0,0 UV-I 0 W/m 0,0 km/h (0 Bft)
23.08.2014 20:40 13,4 C 11,1 C 78 % 1014,2 hPa 0,0 l/m 0 min 0 min 0,0 UV-I 0 W/m 0,0 km/h (0 Bft)
23.08.2014 20:42 13,4 C 11,1 C 78 % 1014,2 hPa 0,0 l/m 0 min 0 min 0,0 UV-I 0 W/m 0,0 km/h (0 Bft)
23.08.2014 20:44 13,3 C 11,1 C 79 % 1014,2 hPa 0,0 l/m 0 min 0 min 0,0 UV-I 0 W/m 0,0 km/h (0 Bft)
23.08.2014 20:46 13,2 C 11,1 C 79 % 1014,2 hPa 0,0 l/m 0 min 0 min 0,0 UV-I 0 W/m 0,0 km/h (0 Bft)
23.08.2014 20:48 13,1 C 11,1 C 80 % 1014,2 hPa 0,0 l/m 0 min 0 min 0,0 UV-I 0 W/m 7,1 km/h (2 Bft)
23.08.2014 20:50 13,1 C 11,1 C 80 % 1014,3 hPa 0,0 l/m 0 min 0 min 0,0 UV-I 0 W/m 0,0 km/h (0 Bft)
23.08.2014 20:52 12,9 C 10,6 C 81 % 1014,3 hPa 0,0 l/m 0 min 0 min 0,0 UV-I 0 W/m 0,0 km/h (0 Bft)
23.08.2014 20:54 12,9 C 10,6 C 81 % 1014,4 hPa 0,0 l/m 0 min 0 min 0,0 UV-I 0 W/m 3,5 km/h (1 Bft)
23.08.2014 20:56 12,8 C 10,6 C 82 % 1014,4 hPa 0,0 l/m 0 min 0 min 0,0 UV-I 0 W/m 0,0 km/h (0 Bft)
23.08.2014 20:58 12,7 C 10,6 C 82 % 1014,4 hPa 0,0 l/m 0 min 0 min 0,0 UV-I 0 W/m 3,5 km/h (1 Bft)
23.08.2014 21:00 12,7 C 10,6 C 83 % 1014,5 hPa 0,0 l/m 0 min 0 min 0,0 UV-I 0 W/m 17,7 km/h (3 Bft)
23.08.2014 21:02 12,6 C 10,6 C 83 % 1014,5 hPa 0,0 l/m 0 min 0 min 0,0 UV-I 0 W/m 0,0 km/h (0 Bft)
23.08.2014 21:04 12,6 C 10,6 C 82 % 1014,6 hPa 0,0 l/m 0 min 0 min 0,0 UV-I 0 W/m 10,7 km/h (2 Bft)
23.08.2014 21:06 12,6 C 10,6 C 82 % 1014,7 hPa 0,0 l/m 0 min 0 min 0,0 UV-I 0 W/m 10,7 km/h (2 Bft)
23.08.2014 21:08 12,4 C 10,6 C 83 % 1014,7 hPa 0,0 l/m 0 min 0 min 0,0 UV-I 0 W/m 7,1 km/h (2 Bft)
23.08.2014 21:10 12,4 C 10,6 C 83 % 1014,7 hPa 0,0 l/m 0 min 0 min 0,0 UV-I 0 W/m 0,0 km/h (0 Bft)
23.08.2014 21:12 12,3 C 10,6 C 83 % 1014,8 hPa 0,0 l/m 0 min 0 min 0,0 UV-I 0 W/m 0,0 km/h (0 Bft)
23.08.2014 21:14 12,3 C 10,6 C 83 % 1014,7 hPa 0,0 l/m 0 min 0 min 0,0 UV-I 0 W/m 0,0 km/h (0 Bft)
23.08.2014 21:16 12,2 C 10,0 C 83 % 1014,8 hPa 0,0 l/m 0 min 0 min 0,0 UV-I 0 W/m 0,0 km/h (0 Bft)
23.08.2014 21:18 12,2 C 10,0 C 83 % 1014,8 hPa 0,0 l/m 0 min 0 min 0,0 UV-I 0 W/m 0,0 km/h (0 Bft)
23.08.2014 21:20 12,1 C 10,0 C 84 % 1014,8 hPa 0,0 l/m 0 min 0 min 0,0 UV-I 0 W/m 0,0 km/h (0 Bft)
23.08.2014 21:22 12,0 C 10,0 C 84 % 1014,8 hPa 0,0 l/m 0 min 0 min 0,0 UV-I 0 W/m 0,0 km/h (0 Bft)
23.08.2014 21:24 11,9 C 10,0 C 85 % 1014,8 hPa 0,0 l/m 0 min 0 min 0,0 UV-I 0 W/m 0,0 km/h (0 Bft)
23.08.2014 21:26 11,9 C 10,0 C 85 % 1014,9 hPa 0,0 l/m 0 min 0 min 0,0 UV-I 0 W/m 0,0 km/h (0 Bft)
23.08.2014 21:28 11,8 C 10,0 C 85 % 1014,9 hPa 0,0 l/m 0 min 0 min 0,0 UV-I 0 W/m 0,0 km/h (0 Bft)
23.08.2014 21:30 11,7 C 10,0 C 86 % 1014,9 hPa 0,0 l/m 0 min 0 min 0,0 UV-I 0 W/m 0,0 km/h (0 Bft)
23.08.2014 21:32 11,7 C 10,0 C 87 % 1014,9 hPa 0,0 l/m 0 min 0 min 0,0 UV-I 0 W/m 0,0 km/h (0 Bft)
23.08.2014 21:34 11,6 C 10,0 C 87 % 1014,9 hPa 0,0 l/m 0 min 0 min 0,0 UV-I 0 W/m 0,0 km/h (0 Bft)
23.08.2014 21:36 11,5 C 10,0 C 87 % 1014,9 hPa 0,0 l/m 0 min 0 min 0,0 UV-I 0 W/m 0,0 km/h (0 Bft)
23.08.2014 21:38 11,5 C 9,4 C 87 % 1014,9 hPa 0,0 l/m 0 min 0 min 0,0 UV-I 0 W/m 0,0 km/h (0 Bft)
23.08.2014 21:40 11,4 C 9,4 C 87 % 1014,9 hPa 0,0 l/m 0 min 0 min 0,0 UV-I 0 W/m 0,0 km/h (0 Bft)
23.08.2014 21:42 11,4 C 9,4 C 88 % 1014,9 hPa 0,0 l/m 0 min 0 min 0,0 UV-I 0 W/m 0,0 km/h (0 Bft)
23.08.2014 21:44 11,4 C 9,4 C 88 % 1015,0 hPa 0,0 l/m 0 min 0 min 0,0 UV-I 0 W/m 0,0 km/h (0 Bft)
23.08.2014 21:46 11,4 C 9,4 C 88 % 1015,0 hPa 0,0 l/m 0 min 0 min 0,0 UV-I 0 W/m 0,0 km/h (0 Bft)
23.08.2014 21:48 11,4 C 9,4 C 88 % 1015,0 hPa 0,0 l/m 0 min 0 min 0,0 UV-I 0 W/m 3,5 km/h (1 Bft)
23.08.2014 21:50 11,4 C 9,4 C 88 % 1015,0 hPa 0,0 l/m 0 min 0 min 0,0 UV-I 0 W/m 0,0 km/h (0 Bft)
23.08.2014 21:52 11,4 C 9,4 C 88 % 1015,0 hPa 0,0 l/m 0 min 0 min 0,0 UV-I 0 W/m 0,0 km/h (0 Bft)
23.08.2014 21:54 11,3 C 9,4 C 88 % 1015,0 hPa 0,0 l/m 0 min 0 min 0,0 UV-I 0 W/m 7,1 km/h (2 Bft)
23.08.2014 21:56 11,3 C 9,4 C 88 % 1015,0 hPa 0,0 l/m 0 min 0 min 0,0 UV-I 0 W/m 7,1 km/h (2 Bft)
23.08.2014 21:58 11,3 C 9,4 C 88 % 1015,0 hPa 0,0 l/m 0 min 0 min 0,0 UV-I 0 W/m 0,0 km/h (0 Bft)
23.08.2014 22:00 11,3 C 9,4 C 88 % 1015,0 hPa 0,0 l/m 0 min 0 min 0,0 UV-I 0 W/m 7,1 km/h (2 Bft)
23.08.2014 22:02 11,2 C 9,4 C 88 % 1015,1 hPa 0,0 l/m 0 min 0 min 0,0 UV-I 0 W/m 10,7 km/h (2 Bft)
23.08.2014 22:03 11,2 C 9,4 C 88 % 1015,1 hPa 0,0 l/m 0 min 0 min 0,0 UV-I 0 W/m 0,0 km/h (0 Bft)
23.08.2014 22:04 11,2 C 9,4 C 88 % 1015,1 hPa 0,0 l/m 0 min 0 min 0,0 UV-I 0 W/m 10,7 km/h (2 Bft)
23.08.2014 22:10 11,2 C 9,4 C 88 % 1015,1 hPa 0,0 l/m 0 min 0 min 0,0 UV-I 0 W/m 0,0 km/h (0 Bft)
23.08.2014 22:12 11,2 C 9,4 C 88 % 1015,1 hPa 0,0 l/m 0 min 0 min 0,0 UV-I 0 W/m 7,1 km/h (2 Bft)
23.08.2014 22:14 11,2 C 9,4 C 88 % 1015,1 hPa 0,0 l/m 0 min 0 min 0,0 UV-I 0 W/m 3,5 km/h (1 Bft)
23.08.2014 22:16 11,2 C 10,0 C 88 % 1015,2 hPa 0,0 l/m 0 min 0 min 0,0 UV-I 0 W/m 7,1 km/h (2 Bft)
23.08.2014 22:18 11,3 C 10,0 C 88 % 1015,2 hPa 0,0 l/m 0 min 0 min 0,0 UV-I 0 W/m 0,0 km/h (0 Bft)
23.08.2014 22:20 11,3 C 10,0 C 88 % 1015,2 hPa 0,0 l/m 0 min 0 min 0,0 UV-I 0 W/m 3,5 km/h (1 Bft)
23.08.2014 22:22 11,3 C 10,0 C 88 % 1015,3 hPa 0,0 l/m 0 min 0 min 0,0 UV-I 0 W/m 3,5 km/h (1 Bft)
23.08.2014 22:24 11,3 C 10,0 C 88 % 1015,4 hPa 0,0 l/m 0 min 0 min 0,0 UV-I 0 W/m 10,7 km/h (2 Bft)
23.08.2014 22:26 11,3 C 10,0 C 88 % 1015,3 hPa 0,0 l/m 0 min 0 min 0,0 UV-I 0 W/m 7,1 km/h (2 Bft)
23.08.2014 22:28 11,3 C 10,0 C 88 % 1015,3 hPa 0,0 l/m 0 min 0 min 0,0 UV-I 0 W/m 7,1 km/h (2 Bft)
23.08.2014 22:30 11,3 C 10,0 C 88 % 1015,4 hPa 0,0 l/m 0 min 0 min 0,0 UV-I 0 W/m 10,7 km/h (2 Bft)
23.08.2014 22:32 11,3 C 10,0 C 88 % 1015,4 hPa 0,0 l/m 0 min 0 min 0,0 UV-I 0 W/m 0,0 km/h (0 Bft)
23.08.2014 22:34 11,3 C 10,0 C 88 % 1015,4 hPa 0,0 l/m 0 min 0 min 0,0 UV-I 0 W/m 10,7 km/h (2 Bft)
23.08.2014 22:36 11,3 C 10,0 C 88 % 1015,4 hPa 0,0 l/m 0 min 0 min 0,0 UV-I 0 W/m 0,0 km/h (0 Bft)
23.08.2014 22:38 11,3 C 10,0 C 88 % 1015,4 hPa 0,0 l/m 0 min 0 min 0,0 UV-I 0 W/m 0,0 km/h (0 Bft)
23.08.2014 22:40 11,3 C 10,0 C 88 % 1015,4 hPa 0,0 l/m 0 min 0 min 0,0 UV-I 0 W/m 0,0 km/h (0 Bft)
23.08.2014 22:42 11,2 C 10,0 C 88 % 1015,4 hPa 0,0 l/m 0 min 0 min 0,0 UV-I 0 W/m 3,5 km/h (1 Bft)
23.08.2014 22:44 11,3 C 10,0 C 88 % 1015,4 hPa 0,0 l/m 0 min 0 min 0,0 UV-I 0 W/m 7,1 km/h (2 Bft)
23.08.2014 22:46 11,2 C 10,0 C 88 % 1015,4 hPa 0,0 l/m 0 min 0 min 0,0 UV-I 0 W/m 14,2 km/h (3 Bft)
23.08.2014 22:48 11,3 C 10,0 C 88 % 1015,4 hPa 0,0 l/m 0 min 0 min 0,0 UV-I 0 W/m 7,1 km/h (2 Bft)
23.08.2014 22:50 11,3 C 10,0 C 88 % 1015,4 hPa 0,0 l/m 0 min 0 min 0,0 UV-I 0 W/m 0,0 km/h (0 Bft)
23.08.2014 22:52 11,3 C 10,0 C 88 % 1015,4 hPa 0,0 l/m 0 min 0 min 0,0 UV-I 0 W/m 0,0 km/h (0 Bft)
23.08.2014 22:54 11,3 C 10,0 C 88 % 1015,5 hPa 0,0 l/m 0 min 0 min 0,0 UV-I 0 W/m 0,0 km/h (0 Bft)
23.08.2014 22:56 11,3 C 10,0 C 88 % 1015,5 hPa 0,0 l/m 0 min 0 min 0,0 UV-I 0 W/m 0,0 km/h (0 Bft)
23.08.2014 22:58 11,3 C 10,0 C 88 % 1015,6 hPa 0,0 l/m 0 min 0 min 0,0 UV-I 0 W/m 3,5 km/h (1 Bft)
23.08.2014 23:00 11,3 C 10,0 C 88 % 1015,5 hPa 0,0 l/m 0 min 0 min 0,0 UV-I 0 W/m 10,7 km/h (2 Bft)
23.08.2014 23:02 11,3 C 10,0 C 88 % 1015,5 hPa 0,0 l/m 0 min 0 min 0,0 UV-I 0 W/m 10,7 km/h (2 Bft)
23.08.2014 23:04 11,4 C 10,6 C 89 % 1015,6 hPa 0,0 l/m 0 min 0 min 0,0 UV-I 0 W/m 10,7 km/h (2 Bft)
23.08.2014 23:06 11,4 C 10,6 C 89 % 1015,6 hPa 0,0 l/m 0 min 0 min 0,0 UV-I 0 W/m 10,7 km/h (2 Bft)
23.08.2014 23:08 11,4 C 10,6 C 89 % 1015,6 hPa 0,0 l/m 0 min 0 min 0,0 UV-I 0 W/m 10,7 km/h (2 Bft)
23.08.2014 23:10 11,4 C 10,6 C 89 % 1015,5 hPa 0,0 l/m 0 min 0 min 0,0 UV-I 0 W/m 3,5 km/h (1 Bft)
23.08.2014 23:12 11,3 C 10,6 C 89 % 1015,6 hPa 0,0 l/m 0 min 0 min 0,0 UV-I 0 W/m 3,5 km/h (1 Bft)
23.08.2014 23:14 11,3 C 10,6 C 89 % 1015,6 hPa 0,0 l/m 0 min 0 min 0,0 UV-I 0 W/m 0,0 km/h (0 Bft)
23.08.2014 23:16 11,3 C 10,0 C 89 % 1015,6 hPa 0,0 l/m 0 min 0 min 0,0 UV-I 0 W/m 0,0 km/h (0 Bft)
23.08.2014 23:18 11,3 C 10,0 C 89 % 1015,6 hPa 0,0 l/m 0 min 0 min 0,0 UV-I 0 W/m 0,0 km/h (0 Bft)
23.08.2014 23:20 11,2 C 10,0 C 90 % 1015,6 hPa 0,0 l/m 0 min 0 min 0,0 UV-I 0 W/m 3,5 km/h (1 Bft)
23.08.2014 23:22 11,2 C 10,0 C 90 % 1015,6 hPa 0,0 l/m 0 min 0 min 0,0 UV-I 0 W/m 0,0 km/h (0 Bft)
23.08.2014 23:24 11,2 C 10,0 C 90 % 1015,6 hPa 0,0 l/m 0 min 0 min 0,0 UV-I 0 W/m 0,0 km/h (0 Bft)
23.08.2014 23:26 11,2 C 10,0 C 90 % 1015,6 hPa 0,0 l/m 0 min 0 min 0,0 UV-I 0 W/m 0,0 km/h (0 Bft)
23.08.2014 23:28 11,1 C 10,0 C 90 % 1015,7 hPa 0,0 l/m 0 min 0 min 0,0 UV-I 0 W/m 0,0 km/h (0 Bft)
23.08.2014 23:30 11,1 C 10,0 C 90 % 1015,7 hPa 0,0 l/m 0 min 0 min 0,0 UV-I 0 W/m 3,5 km/h (1 Bft)
23.08.2014 23:32 11,1 C 10,0 C 90 % 1015,6 hPa 0,0 l/m 0 min 0 min 0,0 UV-I 0 W/m 10,7 km/h (2 Bft)
23.08.2014 23:34 11,0 C 10,0 C 91 % 1015,7 hPa 0,0 l/m 0 min 0 min 0,0 UV-I 0 W/m 3,5 km/h (1 Bft)
23.08.2014 23:36 10,9 C 10,0 C 91 % 1015,6 hPa 0,0 l/m 0 min 0 min 0,0 UV-I 0 W/m 14,2 km/h (3 Bft)
23.08.2014 23:38 10,9 C 10,0 C 91 % 1015,7 hPa 0,0 l/m 0 min 0 min 0,0 UV-I 0 W/m 14,2 km/h (3 Bft)
23.08.2014 23:40 10,9 C 10,0 C 91 % 1015,7 hPa 0,0 l/m 0 min 0 min 0,0 UV-I 0 W/m 7,1 km/h (2 Bft)
23.08.2014 23:42 10,8 C 10,0 C 92 % 1015,7 hPa 0,0 l/m 0 min 0 min 0,0 UV-I 0 W/m 7,1 km/h (2 Bft)
23.08.2014 23:44 10,8 C 10,0 C 91 % 1015,6 hPa 0,0 l/m 0 min 0 min 0,0 UV-I 0 W/m 21,3 km/h (4 Bft)
23.08.2014 23:46 10,8 C 10,0 C 92 % 1015,6 hPa 0,0 l/m 0 min 0 min 0,0 UV-I 0 W/m 14,2 km/h (3 Bft)
23.08.2014 23:48 10,7 C 9,4 C 92 % 1015,6 hPa 0,0 l/m 0 min 0 min 0,0 UV-I 0 W/m 7,1 km/h (2 Bft)
23.08.2014 23:50 10,7 C 9,4 C 92 % 1015,5 hPa 0,0 l/m 0 min 0 min 0,0 UV-I 0 W/m 10,7 km/h (2 Bft)
23.08.2014 23:52 10,7 C 9,4 C 92 % 1015,6 hPa 0,0 l/m 0 min 0 min 0,0 UV-I 0 W/m 14,2 km/h (3 Bft)
23.08.2014 23:54 10,7 C 9,4 C 92 % 1015,6 hPa 0,0 l/m 0 min 0 min 0,0 UV-I 0 W/m 14,2 km/h (3 Bft)
23.08.2014 23:56 10,7 C 9,4 C 92 % 1015,6 hPa 0,0 l/m 0 min 0 min 0,0 UV-I 0 W/m 21,3 km/h (4 Bft)
23.08.2014 23:58 10,7 C 9,4 C 92 % 1015,6 hPa 0,0 l/m 0 min 0 min 0,0 UV-I 0 W/m 14,2 km/h (3 Bft)
_ Min-Zeit 23:48 06:16 13:52 05:18 - - - - - 01:14
Minimum _ 10,7 C 9,4 C 66 % 1011,6 hPa - - - - - 0,0 km/h (0 Bft)
_ Max-Zeit 06:18 13:06 08:02 23:28 08:22 07:04 14:50 13:26 14:02 13:56
Maximum _ 21,0 C 18,9 C 99 % 1015,7 hPa 0,2 l/m 2 min 2 min 3,8 UV-I 909 W/m 77,7 km/h
N (9 Bft)
Durchschnitt _ 13,6 C 12,6 C 86 % 1013,0 hPa #0,2 l/m #5:41 h #14 min. 1,9 UV-I 271 W/m 17,2 km/h (3 Bft)
© 2014 W. Hausmann